Air Quality Table

TIMESTAMP NO2 SO2 O3 PM10 PM2.5 TEMP HUM AIRPRES WS WD NO
2022-01-21 05:00 5.44 µg/m3 1.47 µg/m3 89.05 µg/m3 9.5 µg/m3 10.64 µg/m3 11.06 °C 74.85 % 1,015.17 mbar 1.46 m/s 281.27 Deg 0.22 µg/m3
2022-01-21 04:00 4.28 µg/m3 1.47 µg/m3 90.2 µg/m3 9.53 µg/m3 17.24 µg/m3 11.27 °C 71.32 % 1,015.54 mbar 1.69 m/s 279.28 Deg 0.24 µg/m3
2022-01-21 03:00 2.58 µg/m3 1.32 µg/m3 85.94 µg/m3 9.37 µg/m3 19.62 µg/m3 11.44 °C 72.28 % 1,016.02 mbar 1.77 m/s 284.27 Deg 0.22 µg/m3
2022-01-21 02:00 3.04 µg/m3 1.44 µg/m3 85.83 µg/m3 12.46 µg/m3 17.47 µg/m3 11.42 °C 74.29 % 1,016.23 mbar 1.81 m/s 273.17 Deg 0.2 µg/m3
2022-01-21 01:00 3.42 µg/m3 1.41 µg/m3 83.97 µg/m3 16.39 µg/m3 7.97 µg/m3 11.74 °C 76.56 % 1,016.62 mbar 1.97 m/s 277.58 Deg 0.21 µg/m3
2022-01-21 00:00 6.85 µg/m3 1.55 µg/m3 77.32 µg/m3 21.3 µg/m3 3.3 µg/m3 11.96 °C 77.81 % 1,017.07 mbar 1.93 m/s 271.55 Deg 0.3 µg/m3
2022-01-20 23:00 15.41 µg/m3 1.65 µg/m3 70.28 µg/m3 32.27 µg/m3 4.77 µg/m3 11.98 °C 76.89 % 1,017.38 mbar 1.3 m/s 286.32 Deg 1.01 µg/m3
2022-01-20 22:00 17.48 µg/m3 1.52 µg/m3 70.54 µg/m3 37.01 µg/m3 4.31 µg/m3 11.93 °C 75.53 % 1,017.51 mbar 1.39 m/s 282.3 Deg 0.56 µg/m3
2022-01-20 21:00 43.9 µg/m3 1.67 µg/m3 39.73 µg/m3 36.41 µg/m3 1.3 µg/m3 11.53 °C 76.33 % 1,017.48 mbar 1.07 m/s 300.2 Deg 4.13 µg/m3
2022-01-20 20:00 42.37 µg/m3 1.57 µg/m3 44.28 µg/m3 25.63 µg/m3 0.74 µg/m3 11.98 °C 74.78 % 1,017.50 mbar 1.42 m/s 294.15 Deg 2.7 µg/m3
2022-01-20 19:00 49.49 µg/m3 1.69 µg/m3 38.53 µg/m3 16.45 µg/m3 1.48 µg/m3 12.53 °C 74.03 % 1,017.42 mbar 1.18 m/s 286.4 Deg 5.04 µg/m3
2022-01-20 18:00 30.91 µg/m3 1.47 µg/m3 56.28 µg/m3 17.7 µg/m3 2.96 µg/m3 13.11 °C 69.38 % 1,017.30 mbar 1.6 m/s 279.35 Deg 2.67 µg/m3
2022-01-20 17:00 24.28 µg/m3 1.23 µg/m3 64.69 µg/m3 18.14 µg/m3 5.91 µg/m3 13.89 °C 70.35 % 1,017.30 mbar 1.61 m/s 304.67 Deg 2.27 µg/m3
2022-01-20 16:00 20.61 µg/m3 1.42 µg/m3 68.42 µg/m3 19.05 µg/m3 6.05 µg/m3 14.12 °C 67.25 % 1,017.33 mbar 1.81 m/s 298.95 Deg 3.73 µg/m3
2022-01-20 15:00 22 µg/m3 1.36 µg/m3 66.23 µg/m3 15.69 µg/m3 7.69 µg/m3 14.4 °C 63.71 % 1,017.68 mbar 1.54 m/s 316.9 Deg 4.53 µg/m3
2022-01-20 14:00 15.57 µg/m3 1.63 µg/m3 71.34 µg/m3 12.37 µg/m3 8.9 µg/m3 14.32 °C 66.83 % 1,018.26 mbar 2.15 m/s 286.9 Deg 2.98 µg/m3
2022-01-20 13:00 20.01 µg/m3 1.36 µg/m3 66.01 µg/m3 13.56 µg/m3 10.8 µg/m3 14.05 °C 75.85 % 1,019.00 mbar 1.93 m/s 301.42 Deg 4.69 µg/m3
2022-01-20 12:00 11.51 µg/m3 1.47 µg/m3 74.51 µg/m3 18.15 µg/m3 13.5 µg/m3 14.68 °C 68.35 % 1,019.88 mbar 2.5 m/s 248.2 Deg 2.77 µg/m3
2022-01-20 11:00 8.35 µg/m3 1.01 µg/m3 76.59 µg/m3 19.31 µg/m3 7.67 µg/m3 14.19 °C 74.99 % 1,020.36 mbar 2.16 m/s 228.28 Deg 1.53 µg/m3
2022-01-20 10:00 14.2 µg/m3 1.33 µg/m3 74.37 µg/m3 24.21 µg/m3 5.24 µg/m3 14.16 °C 77.95 % 1,020.28 mbar 1.64 m/s 198.85 Deg 2.38 µg/m3
2022-01-20 09:00 49.14 µg/m3 1.34 µg/m3 38.79 µg/m3 14.27 µg/m3 4.94 µg/m3 13.16 °C 82.93 % 1,020.27 mbar 0.99 m/s 222.17 Deg 13.84 µg/m3
2022-01-20 08:00 68.85 µg/m3 1.61 µg/m3 27.48 µg/m3 9.63 µg/m3 5.55 µg/m3 12.14 °C 86.05 % 1,020.59 mbar 0.93 m/s 225.72 Deg 14.11 µg/m3
2022-01-20 07:00 36.12 µg/m3 1.51 µg/m3 50.94 µg/m3 8.28 µg/m3 6.4 µg/m3 11.44 °C 89.05 % 1,020.67 mbar 1.15 m/s 234.5 Deg 3.19 µg/m3
2022-01-20 06:00 14.91 µg/m3 1.56 µg/m3 67.33 µg/m3 8.91 µg/m3 7.93 µg/m3 11.18 °C 89.78 % 1,020.53 mbar 1.24 m/s 237.93 Deg 0.75 µg/m3
2022-01-20 05:00 9.27 µg/m3 1.44 µg/m3 71.93 µg/m3 7.64 µg/m3 11.45 µg/m3 11.17 °C 89.03 % 1,020.69 mbar 1.28 m/s 234.13 Deg 0.5 µg/m3
2022-01-20 04:00 6.67 µg/m3 1.5 µg/m3 75.72 µg/m3 7.48 µg/m3 9.36 µg/m3 11.83 °C 85.8 % 1,021.13 mbar 1.69 m/s 214.32 Deg 0.24 µg/m3
2022-01-20 03:00 11.91 µg/m3 1.36 µg/m3 70.2 µg/m3 9.17 µg/m3 7.89 µg/m3 12.67 °C 87.76 % 1,021.53 mbar 2.61 m/s 179.05 Deg 0.29 µg/m3
2022-01-20 02:00 6.67 µg/m3 1.46 µg/m3 76.76 µg/m3 10 µg/m3 5.47 µg/m3 12.56 °C 90.42 % 1,021.84 mbar 2.74 m/s 180.93 Deg 0.25 µg/m3
2022-01-20 01:00 16.19 µg/m3 1.31 µg/m3 61.27 µg/m3 10.34 µg/m3 5.93 µg/m3 12.3 °C 87.8 % 1,022.22 mbar 1.49 m/s 209.27 Deg 0.28 µg/m3
2022-01-20 00:00 13.81 µg/m3 1.23 µg/m3 66.99 µg/m3 9.92 µg/m3 4.36 µg/m3 12.56 °C 84.72 % 1,022.61 mbar 1.07 m/s 226.7 Deg 0.41 µg/m3
2022-01-19 23:00 20.83 µg/m3 1.26 µg/m3 59.86 µg/m3 13.58 µg/m3 4.53 µg/m3 12.45 °C 84.14 % 1,023.01 mbar 1.01 m/s 213.18 Deg 0.42 µg/m3
2022-01-19 22:00 11.79 µg/m3 1.26 µg/m3 67.69 µg/m3 16.85 µg/m3 3.55 µg/m3 12.21 °C 85.43 % 1,023.23 mbar 1.32 m/s 181.94 Deg 0.29 µg/m3
2022-01-19 21:00 11.28 µg/m3 1.42 µg/m3 71.5 µg/m3 11.98 µg/m3 4.38 µg/m3 12.4 °C 88.05 % 1,023.32 mbar 2.43 m/s 177.43 Deg 0.28 µg/m3
2022-01-19 20:00 6.29 µg/m3 1.4 µg/m3 73.97 µg/m3 11.19 µg/m3 5.27 µg/m3 12.65 °C 84.54 % 1,023.23 mbar 1.69 m/s 164.05 Deg 0.26 µg/m3
2022-01-19 19:00 4.65 µg/m3 1.4 µg/m3 75.51 µg/m3 15.86 µg/m3 6.35 µg/m3 12.43 °C 87.26 % 1,023.26 mbar 1.82 m/s 155.3 Deg 0.26 µg/m3
2022-01-19 18:00 2.9 µg/m3 1.42 µg/m3 80.19 µg/m3 11.55 µg/m3 5.21 µg/m3 11.71 °C 94.86 % 1,023.10 mbar 2.16 m/s 201.95 Deg 0.21 µg/m3
2022-01-19 17:00 3.48 µg/m3 1.36 µg/m3 82.46 µg/m3 14.81 µg/m3 4.78 µg/m3 13.59 °C 78.86 % 1,022.66 mbar 3.52 m/s 145.5 Deg 0.28 µg/m3
2022-01-19 16:00 2.71 µg/m3 1.54 µg/m3 84.17 µg/m3 13.19 µg/m3 6.53 µg/m3 14.12 °C 70.23 % 1,022.70 mbar 3.21 m/s 145.73 Deg 0.39 µg/m3
2022-01-19 15:00 4.52 µg/m3 1.54 µg/m3 82.32 µg/m3 11.6 µg/m3 7.91 µg/m3 14.27 °C 71.57 % 1,023.02 mbar 2.93 m/s 171.85 Deg 0.72 µg/m3
2022-01-19 14:00 4.33 µg/m3 1.59 µg/m3 82.29 µg/m3 12.02 µg/m3 9.9 µg/m3 14.52 °C 65.62 % 1,023.31 mbar 3.1 m/s 169.47 Deg 0.79 µg/m3
2022-01-19 13:00 4.44 µg/m3 1.39 µg/m3 81.92 µg/m3 18.02 µg/m3 12.17 µg/m3 14.61 °C 63.09 % 1,024.16 mbar 2.79 m/s 167.68 Deg 0.81 µg/m3
2022-01-19 12:00 4.02 µg/m3 1.42 µg/m3 82.37 µg/m3 16.13 µg/m3 20.87 µg/m3 14.41 °C 64.1 % 1,024.70 mbar 2.94 m/s 156.63 Deg 0.72 µg/m3
2022-01-19 11:00 3.46 µg/m3 1.63 µg/m3 78.92 µg/m3 18.01 µg/m3 26.54 µg/m3 14.14 °C 67.15 % 1,025.02 mbar 2.63 m/s 145.03 Deg 0.51 µg/m3
2022-01-19 10:00 5.05 µg/m3 1.4 µg/m3 71.36 µg/m3 24.92 µg/m3 12.25 µg/m3 13.39 °C 74.06 % 1,025.04 mbar 2.17 m/s 127.93 Deg 0.56 µg/m3
2022-01-19 09:00 9.47 µg/m3 1.46 µg/m3 62.59 µg/m3 23.29 µg/m3 10.42 µg/m3 12.61 °C 79.59 % 1,024.63 mbar 1.53 m/s 127.47 Deg 0.79 µg/m3
2022-01-19 08:00 6.34 µg/m3 1.45 µg/m3 68.8 µg/m3 18.08 µg/m3 9.15 µg/m3 12.16 °C 82.82 % 1,024.36 mbar 1.87 m/s 128.57 Deg 0.36 µg/m3
2022-01-19 07:00 19.76 µg/m3 1.65 µg/m3 56.71 µg/m3 18.66 µg/m3 7.66 µg/m3 12.18 °C 79.48 % 1,023.96 mbar 1.67 m/s 104.67 Deg 2.72 µg/m3
2022-01-19 06:00 26.65 µg/m3 1.63 µg/m3 40.55 µg/m3 18.1 µg/m3 11.09 µg/m3 11.77 °C 78.79 % 1,023.69 mbar 1.11 m/s 242.83 Deg 2.39 µg/m3
2022-01-19 05:00 20.66 µg/m3 1.58 µg/m3 42.73 µg/m3 14.71 µg/m3 7.11 µg/m3 11.57 °C 78.79 % 1,023.63 mbar 1.09 m/s 322.2 Deg 1.4 µg/m3
2022-01-19 04:00 10.93 µg/m3 1.39 µg/m3 57.98 µg/m3 14.58 µg/m3 5.65 µg/m3 11.4 °C 78.35 % 1,023.83 mbar 1.41 m/s 310.38 Deg 0.39 µg/m3
2022-01-19 03:00 6.91 µg/m3 1.4 µg/m3 65.69 µg/m3 14.29 µg/m3 6.69 µg/m3 11.57 °C 76.61 % 1,023.95 mbar 1.61 m/s 306.78 Deg 0.28 µg/m3
2022-01-19 02:00 6.68 µg/m3 1.67 µg/m3 67.18 µg/m3 20.11 µg/m3 8.71 µg/m3 11.58 °C 76.46 % 1,024.12 mbar 1.73 m/s 303.9 Deg 0.31 µg/m3
2022-01-19 01:00 13.49 µg/m3 1.75 µg/m3 59.55 µg/m3 24.73 µg/m3 10.52 µg/m3 11.36 °C 77.34 % 1,024.34 mbar 1.88 m/s 297.58 Deg 0.43 µg/m3
2022-01-19 00:00 17.82 µg/m3 1.7 µg/m3 56.13 µg/m3 38.98 µg/m3 19.13 µg/m3 11.35 °C 77.69 % 1,024.48 mbar 1.63 m/s 304.88 Deg 0.58 µg/m3
2022-01-18 23:00 26.01 µg/m3 1.62 µg/m3 48.8 µg/m3 51.41 µg/m3 17.86 µg/m3 11.03 °C 80.28 % 1,024.88 mbar 1.8 m/s 299.45 Deg 1.6 µg/m3
2022-01-18 22:00 38.92 µg/m3 1.49 µg/m3 35.64 µg/m3 46.95 µg/m3 13.99 µg/m3 10.83 °C 81.85 % 1,024.71 mbar 1.72 m/s 306.13 Deg 1.98 µg/m3
2022-01-18 21:00 63.16 µg/m3 1.82 µg/m3 17.05 µg/m3 51.09 µg/m3 17.19 µg/m3 11.17 °C 81.06 % 1,024.66 mbar 1.71 m/s 305.48 Deg 6.34 µg/m3
2022-01-18 20:00 85.3 µg/m3 1.96 µg/m3 3.7 µg/m3 36.64 µg/m3 7.07 µg/m3 11.73 °C 78.76 % 1,024.37 mbar 1.45 m/s 304.28 Deg 25.16 µg/m3
2022-01-18 19:00 60.73 µg/m3 1.85 µg/m3 28.94 µg/m3 22.48 µg/m3 3.76 µg/m3 12.51 °C 74.38 % 1,023.94 mbar 1.09 m/s 257 Deg 7.56 µg/m3
2022-01-18 18:00 33.17 µg/m3 1.62 µg/m3 57.95 µg/m3 18.26 µg/m3 4.16 µg/m3 12.96 °C 70.77 % 1,023.29 mbar 1.75 m/s 350.13 Deg 3.27 µg/m3
2022-01-18 17:00 19.86 µg/m3 1.63 µg/m3 73.65 µg/m3 22.76 µg/m3 3.1 µg/m3 13.62 °C 66.57 % 1,022.79 mbar 2.45 m/s 93.6 Deg 4.13 µg/m3
2022-01-18 16:00 12.03 µg/m3 1.31 µg/m3 81.31 µg/m3 19.45 µg/m3 3.87 µg/m3 14.14 °C 63.82 % 1,022.56 mbar 3.12 m/s 93.43 Deg 2.84 µg/m3
2022-01-18 15:00 12.15 µg/m3 1.47 µg/m3 80.11 µg/m3 19.9 µg/m3 3.28 µg/m3 14.11 °C 63.86 % 1,022.34 mbar 3.17 m/s 177.22 Deg 3.12 µg/m3
2022-01-18 14:00 18.66 µg/m3 1.49 µg/m3 79.01 µg/m3 22.01 µg/m3 4.27 µg/m3 14.13 °C 63.83 % 1,022.42 mbar 3.17 m/s 90.6 Deg 7.51 µg/m3
2022-01-18 13:00 10.2 µg/m3 1.42 µg/m3 80.32 µg/m3 22.88 µg/m3 5.84 µg/m3 14.42 °C 64.56 % 1,022.77 mbar 3.54 m/s 265.87 Deg 3.17 µg/m3
2022-01-18 12:00 10.28 µg/m3 1.47 µg/m3 79.12 µg/m3 29.53 µg/m3 8.98 µg/m3 14.18 °C 67.35 % 1,023.16 mbar 3.54 m/s 264.98 Deg 2.84 µg/m3
2022-01-18 11:00 13.34 µg/m3 1.31 µg/m3 72.45 µg/m3 32.88 µg/m3 9.84 µg/m3 14.24 °C 68.62 % 1,023.09 mbar 3.57 m/s 350.38 Deg 5.81 µg/m3
2022-01-18 10:00 48.3 µg/m3 1.76 µg/m3 37.63 µg/m3 40.86 µg/m3 7.46 µg/m3 13.6 °C 74.81 % 1,022.49 mbar 2.08 m/s 323.88 Deg 17.24 µg/m3
2022-01-18 09:00 71.5 µg/m3 1.96 µg/m3 13.73 µg/m3 33.9 µg/m3 5.43 µg/m3 11.93 °C 82.8 % 1,022.01 mbar 1.49 m/s 323.33 Deg 27.68 µg/m3
2022-01-18 08:00 65.77 µg/m3 1.79 µg/m3 14.9 µg/m3 18.78 µg/m3 6.78 µg/m3 11.23 °C 84.89 % 1,021.49 mbar 2 m/s 309.5 Deg 20.53 µg/m3
2022-01-18 07:00 52.56 µg/m3 1.63 µg/m3 28.38 µg/m3 20.42 µg/m3 6.61 µg/m3 11.8 °C 81.73 % 1,020.92 mbar 1.92 m/s 331.08 Deg 7.79 µg/m3
2022-01-18 06:00 26.25 µg/m3 1.48 µg/m3 49.13 µg/m3 18.65 µg/m3 7.21 µg/m3 11.12 °C 84.25 % 1,020.39 mbar 2.14 m/s 326.17 Deg 1.56 µg/m3
2022-01-18 05:00 10.28 µg/m3 1.33 µg/m3 57.98 µg/m3 11.84 µg/m3 8.84 µg/m3 10.28 °C 87.94 % 1,020.13 mbar 1.68 m/s 305.62 Deg 0.87 µg/m3
2022-01-18 04:00 6.79 µg/m3 1.6 µg/m3 61.97 µg/m3 13.09 µg/m3 11.83 µg/m3 10.4 °C 88.13 % 1,020.18 mbar 1.61 m/s 312.75 Deg 0.39 µg/m3
2022-01-18 03:00 4.57 µg/m3 1.45 µg/m3 65.81 µg/m3 13.81 µg/m3 10.79 µg/m3 10.68 °C 88.07 % 1,020.12 mbar 1.66 m/s 302.7 Deg 0.25 µg/m3
2022-01-18 02:00 5.42 µg/m3 1.51 µg/m3 67.34 µg/m3 13.42 µg/m3 13.21 µg/m3 11.35 °C 87.3 % 1,020.10 mbar 1.61 m/s 303.52 Deg 0.26 µg/m3
2022-01-18 01:00 5.93 µg/m3 1.59 µg/m3 70.44 µg/m3 16.54 µg/m3 3.56 µg/m3 11.94 °C 87.16 % 1,019.98 mbar 1.62 m/s 316.97 Deg 0.3 µg/m3
2022-01-18 00:00 11.34 µg/m3 1.29 µg/m3 65.26 µg/m3 17.09 µg/m3 0 µg/m3 12.13 °C 87.85 % 1,019.96 mbar 1.55 m/s 325.88 Deg 0.43 µg/m3
2022-01-17 23:00 13.48 µg/m3 1.51 µg/m3 64.39 µg/m3 23.03 µg/m3 0 µg/m3 12.01 °C 85.5 % 1,019.99 mbar 1.36 m/s 312.57 Deg 0.5 µg/m3
2022-01-17 22:00 11.61 µg/m3 1.41 µg/m3 70.98 µg/m3 22.68 µg/m3 0 µg/m3 12.48 °C 81.55 % 1,019.89 mbar 1.92 m/s 328.4 Deg 0.76 µg/m3
2022-01-17 21:00 15.09 µg/m3 1.4 µg/m3 68.18 µg/m3 31.67 µg/m3 0 µg/m3 12.65 °C 81.95 % 1,019.78 mbar 2.08 m/s 325.73 Deg 0.8 µg/m3
2022-01-17 20:00 22.02 µg/m3 1.42 µg/m3 65.21 µg/m3 30.67 µg/m3 0 µg/m3 12.59 °C 78.76 % 1,019.32 mbar 2.28 m/s 318.37 Deg 1.54 µg/m3
2022-01-17 19:00 24.49 µg/m3 1.31 µg/m3 66.15 µg/m3 26.58 µg/m3 0 µg/m3 12.89 °C 78.03 % 1,019.11 mbar 2.45 m/s 315.48 Deg 3.05 µg/m3
2022-01-17 18:00 23.52 µg/m3 1.54 µg/m3 70.18 µg/m3 18.76 µg/m3 0 µg/m3 13.2 °C 75.77 % 1,018.84 mbar 2.73 m/s 319.95 Deg 1.97 µg/m3
2022-01-17 17:00 21.55 µg/m3 1.47 µg/m3 74 µg/m3 22.23 µg/m3 0 µg/m3 13.76 °C 73.06 % 1,018.52 mbar 3.25 m/s 314.13 Deg 2.56 µg/m3
2022-01-17 16:00 16.37 µg/m3 1.2 µg/m3 81.93 µg/m3 31.82 µg/m3 0 µg/m3 14.5 °C 70.82 % 1,018.38 mbar 4.06 m/s 316.98 Deg 2.93 µg/m3
2022-01-17 15:00 17.12 µg/m3 1.72 µg/m3 76.16 µg/m3 20.71 µg/m3 0 µg/m3 14.62 °C 71.99 % 1,018.34 mbar 3.72 m/s 317.1 Deg 3.7 µg/m3
2022-01-17 14:00 12.92 µg/m3 1.57 µg/m3 78.29 µg/m3 17.33 µg/m3 0 µg/m3 15.06 °C 69.1 % 1,018.74 mbar 3.5 m/s 310.32 Deg 3.24 µg/m3
2022-01-17 13:00 14.07 µg/m3 1.58 µg/m3 75.83 µg/m3 17.94 µg/m3 0 µg/m3 14.68 °C 71.34 % 1,019.56 mbar 3.07 m/s 316.73 Deg 3.63 µg/m3
2022-01-17 12:00 16.34 µg/m3 1.33 µg/m3 72.12 µg/m3 29.46 µg/m3 0 µg/m3 14.53 °C 70.73 % 1,020.05 mbar 2.98 m/s 309.77 Deg 4.19 µg/m3
2022-01-17 11:00 22.98 µg/m3 1.71 µg/m3 62.31 µg/m3 51.1 µg/m3 0 µg/m3 14.48 °C 74.26 % 1,020.96 mbar 2.23 m/s 322.78 Deg 6.66 µg/m3
2022-01-17 10:00 62.19 µg/m3 2.16 µg/m3 23.13 µg/m3 35.36 µg/m3 0 µg/m3 13.06 °C 83.94 % 1,020.80 mbar 1.3 m/s 325.77 Deg 31.51 µg/m3
2022-01-17 09:00 69.89 µg/m3 1.88 µg/m3 15.54 µg/m3 26.62 µg/m3 µg/m3 11.62 °C 88.42 % 1,020.57 mbar 1.38 m/s 314.19 Deg 36.03 µg/m3
2022-01-17 08:00 67.81 µg/m3 2 µg/m3 13.8 µg/m3 14.23 µg/m3 µg/m3 10.81 °C 91.66 % 1,020.55 mbar 1.58 m/s 316.37 Deg 25.2 µg/m3
2022-01-17 07:00 51.51 µg/m3 1.51 µg/m3 27.52 µg/m3 10.01 µg/m3 µg/m3 10.87 °C 92.12 % 1,020.34 mbar 1.51 m/s 314.35 Deg 10.67 µg/m3
2022-01-17 06:00 24.36 µg/m3 1.43 µg/m3 46.59 µg/m3 9 µg/m3 µg/m3 10.6 °C 94.4 % 1,020.11 mbar 1.65 m/s 312.63 Deg 2.81 µg/m3
2022-01-17 05:00 8.72 µg/m3 1.61 µg/m3 57.59 µg/m3 9.79 µg/m3 µg/m3 10.47 °C 95.65 % 1,019.88 mbar 1.72 m/s 309.8 Deg 0.5 µg/m3
2022-01-17 04:00 7.7 µg/m3 1.56 µg/m3 56.4 µg/m3 10.49 µg/m3 µg/m3 10.73 °C 95.94 % 1,020.01 mbar 1.41 m/s 304.18 Deg 0.35 µg/m3
2022-01-17 03:00 7.43 µg/m3 1.5 µg/m3 57.4 µg/m3 13.51 µg/m3 µg/m3 10.92 °C 95.31 % 1,020.30 mbar 1.24 m/s 310.22 Deg 0.36 µg/m3
2022-01-17 02:00 8.53 µg/m3 1.4 µg/m3 57.04 µg/m3 21.2 µg/m3 µg/m3 11.17 °C 94.61 % 1,020.32 mbar 1.02 m/s 304.78 Deg 0.34 µg/m3
2022-01-17 01:00 14.1 µg/m3 1.36 µg/m3 51.82 µg/m3 31.04 µg/m3 µg/m3 11 °C 95.3 % 1,020.37 mbar 1.19 m/s 299.1 Deg 0.59 µg/m3
2022-01-17 00:00 17.25 µg/m3 1.33 µg/m3 48.64 µg/m3 29.59 µg/m3 µg/m3 10.93 °C 94.99 % 1,020.52 mbar 1.62 m/s 306.73 Deg 0.71 µg/m3
2022-01-16 23:00 27.45 µg/m3 1.48 µg/m3 34.48 µg/m3 45.64 µg/m3 µg/m3 10.72 °C 97.1 % 1,020.80 mbar 1.13 m/s 315.7 Deg 2.18 µg/m3
2022-01-16 22:00 35.34 µg/m3 1.46 µg/m3 31.5 µg/m3 54.51 µg/m3 µg/m3 10.94 °C 96.81 % 1,020.74 mbar 1.28 m/s 317.72 Deg 2.62 µg/m3
2022-01-16 21:00 43.54 µg/m3 1.28 µg/m3 29.64 µg/m3 58.26 µg/m3 µg/m3 11.53 °C 93.79 % 1,020.48 mbar 1.63 m/s 305.48 Deg 6.52 µg/m3
2022-01-16 20:00 56.3 µg/m3 1.63 µg/m3 22.81 µg/m3 41.33 µg/m3 µg/m3 12.17 °C 91.57 % 1,020.01 mbar 1.44 m/s 301.65 Deg 9.25 µg/m3
2022-01-16 19:00 55.36 µg/m3 1.64 µg/m3 27.9 µg/m3 23.13 µg/m3 µg/m3 12.87 °C 89.17 % 1,019.63 mbar 1.41 m/s 297.2 Deg 8.35 µg/m3
2022-01-16 18:00 33.6 µg/m3 1.44 µg/m3 47.45 µg/m3 15.12 µg/m3 µg/m3 13.55 °C 85.92 % 1,019.02 mbar 1.63 m/s 263.8 Deg 1.08 µg/m3
2022-01-16 17:00 12.51 µg/m3 1.26 µg/m3 69.11 µg/m3 17.69 µg/m3 µg/m3 14.92 °C 78.67 % 1,018.58 mbar 1.23 m/s 238.8 Deg 0.6 µg/m3
2022-01-16 16:00 10.66 µg/m3 1.27 µg/m3 78.04 µg/m3 25.56 µg/m3 µg/m3 15.07 °C 79 % 1,018.46 mbar 1.5 m/s 133.47 Deg 1.04 µg/m3
2022-01-16 15:00 6.76 µg/m3 1.22 µg/m3 80.11 µg/m3 15.01 µg/m3 µg/m3 15.08 °C 80.59 % 1,018.35 mbar 2.61 m/s 154.35 Deg 0.99 µg/m3
2022-01-16 14:00 9.92 µg/m3 1.44 µg/m3 76.87 µg/m3 14.67 µg/m3 µg/m3 14.82 °C 79.99 % 1,018.43 mbar 2.6 m/s 144.05 Deg 1.51 µg/m3
2022-01-16 13:00 11.8 µg/m3 1.62 µg/m3 69.81 µg/m3 14.06 µg/m3 µg/m3 14.8 °C 79.77 % 1,018.80 mbar 1.66 m/s 140.1 Deg 1.81 µg/m3
2022-01-16 12:00 17.25 µg/m3 1.49 µg/m3 66.55 µg/m3 16.17 µg/m3 µg/m3 14.93 °C 72.96 % 1,019.04 mbar 0.58 m/s 291.43 Deg 2.62 µg/m3
2022-01-16 11:00 10.43 µg/m3 1.62 µg/m3 69.17 µg/m3 23.64 µg/m3 µg/m3 15.58 °C 72.25 % 1,019.09 mbar 0.76 m/s 243.01 Deg 1.96 µg/m3
2022-01-16 10:00 26.46 µg/m3 1.55 µg/m3 56.1 µg/m3 34.53 µg/m3 µg/m3 14.58 °C 76.15 % 1,018.84 mbar 0.71 m/s 175.35 Deg 6.49 µg/m3
2022-01-16 09:00 41.83 µg/m3 1.76 µg/m3 42.65 µg/m3 17.13 µg/m3 µg/m3 12.44 °C 80.04 % 1,018.39 mbar 1.38 m/s 297.08 Deg 11.72 µg/m3
2022-01-16 08:00 28.68 µg/m3 1.61 µg/m3 49.1 µg/m3 11.08 µg/m3 µg/m3 12.32 °C 79.87 % 1,018.03 mbar 1.17 m/s 320.03 Deg 2.99 µg/m3
2022-01-16 07:00 15.31 µg/m3 1.44 µg/m3 58.55 µg/m3 13.88 µg/m3 µg/m3 11.47 °C 83.72 % 1,017.39 mbar 1.65 m/s 309.23 Deg 0.75 µg/m3
2022-01-16 06:00 8.8 µg/m3 1.43 µg/m3 65.52 µg/m3 13.32 µg/m3 µg/m3 11.46 °C 83.31 % 1,016.63 mbar 1.83 m/s 304 Deg 0.4 µg/m3
2022-01-16 05:00 6.2 µg/m3 1.41 µg/m3 70.44 µg/m3 13.83 µg/m3 µg/m3 11.41 °C 83.66 % 1,016.59 mbar 2.19 m/s 298.5 Deg 0.25 µg/m3
2022-01-16 04:00 6.33 µg/m3 1.82 µg/m3 67.59 µg/m3 16.98 µg/m3 µg/m3 11.31 °C 84.76 % 1,017.01 mbar 1.96 m/s 303.68 Deg 0.27 µg/m3
2022-01-16 03:00 10.94 µg/m3 1.65 µg/m3 62.15 µg/m3 18.8 µg/m3 µg/m3 11.65 °C 83.34 % 1,016.94 mbar 1.4 m/s 313.55 Deg 0.32 µg/m3
2022-01-16 02:00 15.34 µg/m3 1.53 µg/m3 58.09 µg/m3 19.51 µg/m3 µg/m3 10.82 °C 82.67 % 1,016.26 mbar 1.91 m/s 306.18 Deg 0.59 µg/m3
2022-01-16 01:00 26.15 µg/m3 1.52 µg/m3 44.41 µg/m3 28.22 µg/m3 µg/m3 10.43 °C 85.05 % 1,016.66 mbar 1.83 m/s 304.65 Deg 1.8 µg/m3
2022-01-16 00:00 24.62 µg/m3 1.52 µg/m3 49 µg/m3 51.22 µg/m3 µg/m3 10.52 °C 82.86 % 1,016.35 mbar 1.23 m/s 314.33 Deg 1.17 µg/m3
2022-01-15 23:00 35.18 µg/m3 1.54 µg/m3 39.76 µg/m3 67.25 µg/m3 µg/m3 10.24 °C 83.77 % 1,015.88 mbar 1.55 m/s 313.67 Deg 2.01 µg/m3
2022-01-15 22:00 44.66 µg/m3 1.62 µg/m3 34.56 µg/m3 81.98 µg/m3 µg/m3 10.56 °C 83.14 % 1,016.45 mbar 1.62 m/s 308.57 Deg 3.41 µg/m3
2022-01-15 21:00 59.85 µg/m3 1.85 µg/m3 24.1 µg/m3 67.96 µg/m3 µg/m3 10.7 °C 83.08 % 1,015.98 mbar 1.44 m/s 309.72 Deg 8.93 µg/m3
2022-01-15 20:00 64.14 µg/m3 1.72 µg/m3 22.11 µg/m3 52.25 µg/m3 µg/m3 11.06 °C 81.28 % 1,015.78 mbar 1.29 m/s 316.3 Deg 11 µg/m3
2022-01-15 19:00 69.62 µg/m3 2.01 µg/m3 19.65 µg/m3 30.61 µg/m3 µg/m3 11.51 °C 78.01 % 1,015.53 mbar 1.34 m/s 311.78 Deg 9.73 µg/m3
2022-01-15 18:00 48.6 µg/m3 1.69 µg/m3 40.18 µg/m3 26.02 µg/m3 µg/m3 12.27 °C 74.05 % 1,015.10 mbar 1.15 m/s 331.22 Deg 4.7 µg/m3
2022-01-15 17:00 18.73 µg/m3 1.61 µg/m3 73.98 µg/m3 21.58 µg/m3 µg/m3 13.03 °C 69.68 % 1,015.02 mbar 2.14 m/s 92.42 Deg 2.49 µg/m3
2022-01-15 16:00 12.07 µg/m3 1.55 µg/m3 83.07 µg/m3 20.07 µg/m3 µg/m3 13.5 °C 67.62 % 1,014.76 mbar 2.51 m/s 3.58 Deg 2.56 µg/m3
2022-01-15 15:00 10.25 µg/m3 1.38 µg/m3 86.46 µg/m3 15.91 µg/m3 µg/m3 13.72 °C 64.02 % 1,014.63 mbar 3.05 m/s 9.28 Deg 2.28 µg/m3
2022-01-15 14:00 13.95 µg/m3 1.6 µg/m3 80.14 µg/m3 13.72 µg/m3 µg/m3 13.97 °C 62.8 % 1,014.80 mbar 2.65 m/s 92.7 Deg 3.41 µg/m3
2022-01-15 13:00 15.86 µg/m3 1.7 µg/m3 76.72 µg/m3 14.79 µg/m3 µg/m3 13.84 °C 62.83 % 1,015.55 mbar 2.51 m/s 256.03 Deg 4.3 µg/m3
2022-01-15 12:00 14.64 µg/m3 1.69 µg/m3 75.78 µg/m3 23.73 µg/m3 µg/m3 13.33 °C 66.39 % 1,016.38 mbar 3.01 m/s 348.33 Deg 3.85 µg/m3
2022-01-15 11:00 21.64 µg/m3 1.66 µg/m3 66.29 µg/m3 38.86 µg/m3 µg/m3 12.93 °C 68.29 % 1,016.83 mbar 2.62 m/s 342.63 Deg 6.2 µg/m3
2022-01-15 10:00 52.69 µg/m3 1.86 µg/m3 31.56 µg/m3 42.25 µg/m3 µg/m3 11.93 °C 73.55 % 1,016.85 mbar 1.31 m/s 319.4 Deg 25.34 µg/m3
2022-01-15 09:00 65.63 µg/m3 2.15 µg/m3 16.42 µg/m3 18.96 µg/m3 µg/m3 9.67 °C 79.63 % 1,016.87 mbar 1.67 m/s 306.48 Deg 37.34 µg/m3
2022-01-15 08:00 69.7 µg/m3 2.13 µg/m3 10.49 µg/m3 13.4 µg/m3 µg/m3 8.45 °C 82.66 % 1,016.97 mbar 1.64 m/s 311.28 Deg 26.31 µg/m3
2022-01-15 07:00 52 µg/m3 1.88 µg/m3 23.18 µg/m3 15.13 µg/m3 µg/m3 8.44 °C 81.74 % 1,016.76 mbar 1.85 m/s 301.28 Deg 9.83 µg/m3
2022-01-15 06:00 21.88 µg/m3 1.56 µg/m3 51.89 µg/m3 12.06 µg/m3 µg/m3 8.82 °C 80.42 % 1,016.54 mbar 1.7 m/s 294 Deg 2.16 µg/m3
2022-01-15 05:00 9.5 µg/m3 1.7 µg/m3 62.26 µg/m3 12.27 µg/m3 µg/m3 8.96 °C 77.06 % 1,016.87 mbar 1.75 m/s 297.17 Deg 0.54 µg/m3
2022-01-15 04:00 9.03 µg/m3 1.74 µg/m3 64.61 µg/m3 15.39 µg/m3 µg/m3 9.06 °C 71.45 % 1,017.48 mbar 1.45 m/s 284.13 Deg 0.58 µg/m3
2022-01-15 03:00 15.06 µg/m3 1.53 µg/m3 59.12 µg/m3 13.34 µg/m3 µg/m3 8.59 °C 74.23 % 1,018.08 mbar 1.72 m/s 292.95 Deg 0.35 µg/m3
2022-01-15 02:00 16.22 µg/m3 1.71 µg/m3 57.19 µg/m3 14.72 µg/m3 µg/m3 8.45 °C 72.51 % 1,018.38 mbar 1.61 m/s 303.53 Deg 0.38 µg/m3
2022-01-15 01:00 18.67 µg/m3 1.8 µg/m3 57.82 µg/m3 23.28 µg/m3 µg/m3 8.8 °C 68.06 % 1,018.58 mbar 1.71 m/s 302.17 Deg 0.71 µg/m3
2022-01-15 00:00 19.85 µg/m3 1.54 µg/m3 59.26 µg/m3 28.05 µg/m3 µg/m3 9.05 °C 68.26 % 1,019.28 mbar 1.86 m/s 298.6 Deg 0.92 µg/m3
2022-01-14 23:00 26.88 µg/m3 1.7 µg/m3 50.5 µg/m3 44.3 µg/m3 µg/m3 8.9 °C 72.28 % 1,019.83 mbar 1.84 m/s 304.53 Deg 1.47 µg/m3
2022-01-14 22:00 40.38 µg/m3 1.73 µg/m3 37.5 µg/m3 44.62 µg/m3 µg/m3 9.17 °C 72.33 % 1,020.05 mbar 2.04 m/s 303.37 Deg 4.25 µg/m3
2022-01-14 21:00 64.29 µg/m3 1.98 µg/m3 18.22 µg/m3 34.71 µg/m3 µg/m3 9.84 °C 71.05 % 1,020.17 mbar 1.47 m/s 304.62 Deg 9.14 µg/m3
2022-01-14 20:00 40.24 µg/m3 1.69 µg/m3 48.44 µg/m3 25.89 µg/m3 µg/m3 11 °C 62.48 % 1,020.13 mbar 1.19 m/s 14.78 Deg 3.96 µg/m3
2022-01-14 19:00 31.99 µg/m3 2.19 µg/m3 57.02 µg/m3 33.47 µg/m3 µg/m3 11.3 °C 63.41 % 1,019.98 mbar 1.32 m/s 27.47 Deg 3.39 µg/m3
2022-01-14 18:00 24.01 µg/m3 1.69 µg/m3 63.95 µg/m3 31.4 µg/m3 µg/m3 11.56 °C 66.38 % 1,019.72 mbar 1.89 m/s 34.77 Deg 2.58 µg/m3
2022-01-14 17:00 12.92 µg/m3 1.4 µg/m3 74.94 µg/m3 21.03 µg/m3 µg/m3 11.94 °C 67.3 % 1,019.55 mbar 2.62 m/s 38.2 Deg 1.43 µg/m3
2022-01-14 16:00 13.1 µg/m3 1.57 µg/m3 75.69 µg/m3 25.9 µg/m3 µg/m3 12.42 °C 66.07 % 1,019.66 mbar 3.26 m/s 37.62 Deg 2.46 µg/m3
2022-01-14 15:00 13.35 µg/m3 1.48 µg/m3 76.4 µg/m3 27.08 µg/m3 µg/m3 12.87 °C 61.24 % 1,019.64 mbar 3.4 m/s 34.93 Deg 2.64 µg/m3
2022-01-14 14:00 11.77 µg/m3 1.69 µg/m3 76.91 µg/m3 22.17 µg/m3 µg/m3 12.66 °C 62.58 % 1,019.98 mbar 3.36 m/s 23.7 Deg 2.32 µg/m3
2022-01-14 13:00 10.41 µg/m3 1.43 µg/m3 77.54 µg/m3 17.38 µg/m3 µg/m3 12.57 °C 62.21 % 1,020.59 mbar 3.79 m/s 36.58 Deg 2.37 µg/m3
2022-01-14 12:00 10.31 µg/m3 1.75 µg/m3 77.08 µg/m3 23.35 µg/m3 µg/m3 12.64 °C 60.89 % 1,021.07 mbar 3.59 m/s 37.57 Deg 2.27 µg/m3
2022-01-14 11:00 8.68 µg/m3 1.53 µg/m3 77.35 µg/m3 33.78 µg/m3 µg/m3 12.73 °C 64.47 % 1,021.26 mbar 3.59 m/s 113.95 Deg 1.54 µg/m3
2022-01-14 10:00 9.15 µg/m3 1.7 µg/m3 75.56 µg/m3 23.32 µg/m3 µg/m3 12.32 °C 66.77 % 1,021.07 mbar 3.51 m/s 108.18 Deg 2.42 µg/m3
2022-01-14 09:00 11.07 µg/m3 1.55 µg/m3 74.25 µg/m3 19.96 µg/m3 µg/m3 12.17 °C 66.32 % 1,020.84 mbar 3.34 m/s 197.48 Deg 1.4 µg/m3
2022-01-14 08:00 12.29 µg/m3 1.72 µg/m3 73.87 µg/m3 31.53 µg/m3 µg/m3 11.89 °C 67.25 % 1,020.69 mbar 4.23 m/s 43.4 Deg 1.46 µg/m3
2022-01-14 07:00 9.78 µg/m3 1.49 µg/m3 76.07 µg/m3 19.45 µg/m3 µg/m3 11.68 °C 68.18 % 1,020.51 mbar 4.49 m/s 44.2 Deg 1.25 µg/m3
2022-01-14 06:00 4.24 µg/m3 1.59 µg/m3 81.02 µg/m3 19.78 µg/m3 µg/m3 11.71 °C 69.65 % 1,020.30 mbar 5.51 m/s 46.25 Deg 0.49 µg/m3
2022-01-14 05:00 2.55 µg/m3 1.69 µg/m3 82.81 µg/m3 26.82 µg/m3 µg/m3 11.65 °C 66.65 % 1,020.50 mbar 4.79 m/s 34.37 Deg 0.42 µg/m3
2022-01-14 04:00 1.99 µg/m3 1.65 µg/m3 85.9 µg/m3 22.33 µg/m3 µg/m3 11.42 °C 63 % 1,020.80 mbar 4.87 m/s 111.47 Deg 0.18 µg/m3
2022-01-14 03:00 1.72 µg/m3 1.43 µg/m3 84.84 µg/m3 14.49 µg/m3 µg/m3 11.34 °C 62.13 % 1,020.88 mbar 5.32 m/s 31.35 Deg 0.13 µg/m3
2022-01-14 02:00 1.96 µg/m3 1.49 µg/m3 84.23 µg/m3 13.54 µg/m3 µg/m3 11.47 °C 64.97 % 1,020.75 mbar 4.81 m/s 37.75 Deg 0.15 µg/m3
2022-01-14 01:00 1.23 µg/m3 1.4 µg/m3 83.13 µg/m3 19.51 µg/m3 µg/m3 11.78 °C 65.72 % 1,020.80 mbar 4.76 m/s 24.67 Deg 0.89 µg/m3
2022-01-14 00:00 2.32 µg/m3 1.48 µg/m3 81.6 µg/m3 24.54 µg/m3 µg/m3 11.89 °C 66.69 % 1,020.98 mbar 4.49 m/s 37.35 Deg 0.26 µg/m3
2022-01-13 23:00 2.53 µg/m3 1.46 µg/m3 80.92 µg/m3 20.44 µg/m3 µg/m3 12 °C 65.78 % 1,021.04 mbar 4.59 m/s 37.13 Deg 0.22 µg/m3
2022-01-13 22:00 3.26 µg/m3 1.44 µg/m3 79.72 µg/m3 20.22 µg/m3 µg/m3 11.99 °C 69.5 % 1,021.00 mbar 3.76 m/s 116.02 Deg 0.27 µg/m3
2022-01-13 21:00 2.92 µg/m3 1.38 µg/m3 80.39 µg/m3 20.43 µg/m3 µg/m3 11.98 °C 70.48 % 1,020.71 mbar 3.97 m/s 108.02 Deg 0.52 µg/m3
2022-01-13 20:00 4.05 µg/m3 1.53 µg/m3 79.1 µg/m3 21.26 µg/m3 µg/m3 12.11 °C 72.58 % 1,020.29 mbar 4.12 m/s 186.55 Deg 0.33 µg/m3
2022-01-13 19:00 4.91 µg/m3 1.37 µg/m3 77.87 µg/m3 23.4 µg/m3 µg/m3 12.19 °C 72.78 % 1,019.74 mbar 3.97 m/s 190.73 Deg 0.47 µg/m3
2022-01-13 18:00 5.28 µg/m3 1.41 µg/m3 75.79 µg/m3 28.94 µg/m3 µg/m3 12.35 °C 74.91 % 1,019.15 mbar 4.19 m/s 184 Deg 0.85 µg/m3
2022-01-13 17:00 5.13 µg/m3 1.44 µg/m3 75.55 µg/m3 32.33 µg/m3 µg/m3 12.57 °C 74.82 % 1,018.65 mbar 4.32 m/s 104.95 Deg 0.61 µg/m3
2022-01-13 16:00 5.43 µg/m3 1.13 µg/m3 75.87 µg/m3 33.06 µg/m3 µg/m3 12.81 °C 73.91 % 1,018.30 mbar 4.64 m/s 191.63 Deg 0.99 µg/m3
2022-01-13 15:00 6.35 µg/m3 1.36 µg/m3 73.13 µg/m3 21.49 µg/m3 µg/m3 12.56 °C 76.07 % 1,017.95 mbar 4.97 m/s 97.65 Deg 1.81 µg/m3
2022-01-13 14:00 4.25 µg/m3 1.26 µg/m3 72.49 µg/m3 22.78 µg/m3 µg/m3 12.3 °C 78.45 % 1,017.81 mbar 5.25 m/s 185.08 Deg 0.99 µg/m3
2022-01-13 13:00 4.36 µg/m3 1.23 µg/m3 69.51 µg/m3 14.34 µg/m3 µg/m3 12.2 °C 81.73 % 1,017.90 mbar 4.77 m/s 256.58 Deg 1.38 µg/m3
2022-01-13 12:00 3.78 µg/m3 1.41 µg/m3 67.32 µg/m3 12.98 µg/m3 µg/m3 12.73 °C 82.32 % 1,017.92 mbar 5.39 m/s 328.35 Deg 1.09 µg/m3
2022-01-13 11:00 4.89 µg/m3 1.4 µg/m3 65.25 µg/m3 17.49 µg/m3 µg/m3 13.27 °C 77.13 % 1,017.88 mbar 4.3 m/s 238.23 Deg 1.74 µg/m3
2022-01-13 10:00 5.74 µg/m3 1.28 µg/m3 58.36 µg/m3 18.78 µg/m3 µg/m3 12.99 °C 79.28 % 1,017.46 mbar 3.82 m/s 223.72 Deg 1.06 µg/m3
2022-01-13 09:00 7.15 µg/m3 1.27 µg/m3 54.81 µg/m3 11.28 µg/m3 µg/m3 12.77 °C 80.59 % 1,016.79 mbar 3.84 m/s 229.53 Deg 0.89 µg/m3
2022-01-13 08:00 4.41 µg/m3 1.2 µg/m3 58.8 µg/m3 7.46 µg/m3 µg/m3 12.15 °C 83.05 % 1,016.20 mbar 3.62 m/s 203.88 Deg 0.53 µg/m3
2022-01-13 07:00 17.63 µg/m3 1.31 µg/m3 48.22 µg/m3 7.84 µg/m3 µg/m3 11.67 °C 86.43 % 1,015.73 mbar 3.4 m/s 235.63 Deg 10.69 µg/m3
2022-01-13 06:00 11.25 µg/m3 1.37 µg/m3 56.11 µg/m3 6.72 µg/m3 µg/m3 10.54 °C 91.07 % 1,015.42 mbar 2.01 m/s 306.18 Deg 1.53 µg/m3
2022-01-13 05:00 18.86 µg/m3 1.32 µg/m3 46.65 µg/m3 7.12 µg/m3 µg/m3 10.21 °C 99.95 % 1,015.18 mbar 1.9 m/s 329.2 Deg 1.11 µg/m3
2022-01-13 04:00 12.94 µg/m3 -8.33 µg/m3 57.99 µg/m3 8.14 µg/m3 µg/m3 10.33 °C 99.95 % 1,015.25 mbar 2.24 m/s 336.62 Deg 0.31 µg/m3
2022-01-13 03:00 6.98 µg/m3 1.06 µg/m3 53.79 µg/m3 10.46 µg/m3 µg/m3 10.26 °C 99.9 % 1,015.11 mbar 1.87 m/s 313.47 Deg 0.32 µg/m3
2022-01-13 02:00 7.94 µg/m3 1.3 µg/m3 55.54 µg/m3 11.63 µg/m3 µg/m3 10.13 °C 99.9 % 1,014.96 mbar 1.78 m/s 322.32 Deg 0.26 µg/m3
2022-01-13 01:00 9.9 µg/m3 1.28 µg/m3 54.59 µg/m3 13.71 µg/m3 µg/m3 9.7 °C 99.9 % 1,014.91 mbar 1.82 m/s 324.05 Deg 0.29 µg/m3
2022-01-13 00:00 10.96 µg/m3 0.33 µg/m3 55.63 µg/m3 11.85 µg/m3 µg/m3 9.51 °C 99.9 % 1,014.70 mbar 2.46 m/s 306.67 Deg 0.55 µg/m3
2022-01-12 23:00 19.86 µg/m3 1.27 µg/m3 50.62 µg/m3 14.4 µg/m3 µg/m3 9.69 °C 99.9 % 1,014.62 mbar 2.42 m/s 321.47 Deg 0.93 µg/m3
2022-01-12 22:00 14.11 µg/m3 1.49 µg/m3 52.97 µg/m3 19.89 µg/m3 µg/m3 10.37 °C 99.9 % 1,014.00 mbar 2.6 m/s 316.22 Deg 0.87 µg/m3
2022-01-12 21:00 15.15 µg/m3 1.4 µg/m3 53.23 µg/m3 18.95 µg/m3 µg/m3 10.98 °C 97.8 % 1,013.60 mbar 2.87 m/s 313.82 Deg 1.03 µg/m3
2022-01-12 20:00 22.23 µg/m3 1.35 µg/m3 48.42 µg/m3 24.45 µg/m3 µg/m3 12.38 °C 83.88 % 1,012.98 mbar 1.78 m/s 174.18 Deg 1.84 µg/m3
2022-01-12 19:00 3.55 µg/m3 1.3 µg/m3 66.51 µg/m3 18.83 µg/m3 µg/m3 13.04 °C 73.29 % 1,012.23 mbar 2.9 m/s 236.92 Deg 0.21 µg/m3
2022-01-12 18:00 2.46 µg/m3 1.26 µg/m3 67.34 µg/m3 18.98 µg/m3 µg/m3 12.84 °C 75.47 % 1,011.55 mbar 3.94 m/s 117.83 Deg 0.15 µg/m3
2022-01-12 17:00 3.78 µg/m3 1.45 µg/m3 62.68 µg/m3 17.61 µg/m3 µg/m3 12.65 °C 81.51 % 1,011.05 mbar 3.6 m/s 129.42 Deg 0.23 µg/m3
2022-01-12 16:00 3.78 µg/m3 1.32 µg/m3 61.13 µg/m3 21.01 µg/m3 µg/m3 12.64 °C 85.18 % 1,010.73 mbar 3.07 m/s 218.75 Deg 1.25 µg/m3
2022-01-12 15:00 4.97 µg/m3 1.22 µg/m3 60.08 µg/m3 22.39 µg/m3 µg/m3 12.68 °C 88.06 % 1,010.28 mbar 3.76 m/s 157.62 Deg 0.57 µg/m3
2022-01-12 14:00 10 µg/m3 1.39 µg/m3 59.14 µg/m3 19.64 µg/m3 µg/m3 13.52 °C 78.25 % 1,010.16 mbar 2.8 m/s 114.77 Deg 2.56 µg/m3
2022-01-12 13:00 14.4 µg/m3 1.57 µg/m3 56.38 µg/m3 29.4 µg/m3 µg/m3 14.42 °C 69.71 % 1,009.94 mbar 2.18 m/s 13.08 Deg 3.73 µg/m3
2022-01-12 12:00 14.06 µg/m3 1.53 µg/m3 55.41 µg/m3 42.61 µg/m3 µg/m3 15.07 °C 64.75 % 1,009.94 mbar 1.6 m/s 20.4 Deg 4.82 µg/m3
2022-01-12 11:00 13.34 µg/m3 1.36 µg/m3 53.97 µg/m3 68.11 µg/m3 µg/m3 14.67 °C 69.02 % 1,010.03 mbar 1.57 m/s 21.28 Deg 4.47 µg/m3
2022-01-12 10:00 59.92 µg/m3 2.55 µg/m3 12.86 µg/m3 63.03 µg/m3 µg/m3 14.06 °C 75.87 % 1,009.54 mbar 1.2 m/s 258.4 Deg 80.36 µg/m3
2022-01-12 09:00 67.95 µg/m3 3.33 µg/m3 4.92 µg/m3 50.16 µg/m3 µg/m3 12.48 °C 80.03 % 1,008.92 mbar 0.98 m/s 326.72 Deg 133.88 µg/m3
2022-01-12 08:00 62.93 µg/m3 2.29 µg/m3 3.58 µg/m3 31.04 µg/m3 µg/m3 10.7 °C 85.78 % 1,008.34 mbar 1.73 m/s 310.5 Deg 66.62 µg/m3
2022-01-12 07:00 54.48 µg/m3 1.92 µg/m3 5.96 µg/m3 17.25 µg/m3 µg/m3 10.28 °C 87.99 % 1,007.82 mbar 2.01 m/s 303.27 Deg 29.48 µg/m3
2022-01-12 06:00 26.14 µg/m3 1.48 µg/m3 26.24 µg/m3 12.72 µg/m3 µg/m3 10.38 °C 86.98 % 1,007.20 mbar 1.99 m/s 305.57 Deg 3.41 µg/m3
2022-01-12 05:00 14.37 µg/m3 1.33 µg/m3 35.63 µg/m3 14.63 µg/m3 µg/m3 10.56 °C 86.65 % 1,006.87 mbar 1.6 m/s 307.63 Deg 1.03 µg/m3
2022-01-12 04:00 10.38 µg/m3 1.54 µg/m3 40.84 µg/m3 14.27 µg/m3 µg/m3 10.58 °C 85.49 % 1,006.78 mbar 1.54 m/s 304.97 Deg 0.48 µg/m3
2022-01-12 03:00 10.52 µg/m3 1.39 µg/m3 38.1 µg/m3 14.2 µg/m3 µg/m3 11.07 °C 81.44 % 1,006.84 mbar 1.43 m/s 309.32 Deg 0.41 µg/m3
2022-01-12 02:00 21.7 µg/m3 1.64 µg/m3 36.98 µg/m3 16.59 µg/m3 µg/m3 11.79 °C 78.55 % 1,006.44 mbar 1.89 m/s 338.32 Deg 0.74 µg/m3
2022-01-12 01:00 7.06 µg/m3 1.26 µg/m3 53.27 µg/m3 20.45 µg/m3 µg/m3 11.69 °C 76.83 % 1,006.17 mbar 1.71 m/s 315.57 Deg 0.3 µg/m3
2022-01-12 00:00 10.47 µg/m3 1.27 µg/m3 55.81 µg/m3 19.41 µg/m3 µg/m3 12.79 °C 71.16 % 1,005.96 mbar 2.26 m/s 336.45 Deg 0.36 µg/m3
2022-01-11 23:00 6.53 µg/m3 1.42 µg/m3 61.16 µg/m3 16.87 µg/m3 µg/m3 13.09 °C 70.94 % 1,005.54 mbar 3.61 m/s 357.38 Deg 0.47 µg/m3
2022-01-11 22:00 8.55 µg/m3 1.59 µg/m3 60.18 µg/m3 17.47 µg/m3 µg/m3 13.27 °C 68.65 % 1,004.83 mbar 3.93 m/s 351.33 Deg 0.44 µg/m3
2022-01-11 21:00 18.25 µg/m3 1.42 µg/m3 50.77 µg/m3 13.45 µg/m3 µg/m3 13.51 °C 68.52 % 1,004.27 mbar 3.98 m/s 348.33 Deg 1.08 µg/m3
2022-01-11 20:00 10.94 µg/m3 1.51 µg/m3 57.99 µg/m3 16.73 µg/m3 µg/m3 13.72 °C 65.14 % 1,003.59 mbar 4.09 m/s 263.32 Deg 1.38 µg/m3
2022-01-11 19:00 16 µg/m3 1.44 µg/m3 54.05 µg/m3 22.1 µg/m3 µg/m3 13.87 °C 65.15 % 1,003.05 mbar 3.81 m/s 348.6 Deg 1.59 µg/m3
2022-01-11 18:00 27.86 µg/m3 1.43 µg/m3 44.67 µg/m3 21.87 µg/m3 µg/m3 13.86 °C 67.91 % 1,002.22 mbar 4.23 m/s 344.72 Deg 2.29 µg/m3
2022-01-11 17:00 13.76 µg/m3 1.53 µg/m3 61.26 µg/m3 17.17 µg/m3 µg/m3 13.9 °C 68.51 % 1,001.70 mbar 3.81 m/s 335.28 Deg 2.92 µg/m3
2022-01-11 16:00 11.48 µg/m3 1.56 µg/m3 65.7 µg/m3 21.9 µg/m3 µg/m3 14.09 °C 67.04 % 1,001.22 mbar 4.47 m/s 341.05 Deg 3.13 µg/m3
2022-01-11 15:00 15.23 µg/m3 1.43 µg/m3 63.07 µg/m3 15.76 µg/m3 µg/m3 14.07 °C 65.91 % 1,000.75 mbar 5.36 m/s 342.87 Deg 4.3 µg/m3
2022-01-11 14:00 13.03 µg/m3 1.51 µg/m3 64.64 µg/m3 15.38 µg/m3 µg/m3 13.93 °C 65.89 % 1,000.20 mbar 5.33 m/s 344.07 Deg 4.35 µg/m3
2022-01-11 13:00 10.53 µg/m3 1.63 µg/m3 65.33 µg/m3 18.12 µg/m3 µg/m3 13.92 °C 64.68 % 999.87 mbar 5.59 m/s 345.2 Deg 3.66 µg/m3
2022-01-11 12:00 8.93 µg/m3 1.45 µg/m3 64.74 µg/m3 18.72 µg/m3 µg/m3 13.67 °C 66.87 % 1,000.01 mbar 5 m/s 351.12 Deg 3.45 µg/m3
2022-01-11 11:00 10.42 µg/m3 1.53 µg/m3 62.5 µg/m3 24.73 µg/m3 µg/m3 13.06 °C 67.9 % 999.91 mbar 5.07 m/s 354.35 Deg 4.05 µg/m3
2022-01-11 10:00 12.37 µg/m3 1.67 µg/m3 60.04 µg/m3 15.54 µg/m3 µg/m3 12.61 °C 71.81 % 999.32 mbar 4.77 m/s 350.22 Deg 4.14 µg/m3
2022-01-11 09:00 11.72 µg/m3 1.49 µg/m3 60.93 µg/m3 14.75 µg/m3 µg/m3 11.91 °C 72.49 % 998.44 mbar 5.41 m/s 350.85 Deg 3.08 µg/m3
2022-01-11 08:00 21.95 µg/m3 1.52 µg/m3 53.14 µg/m3 20.45 µg/m3 µg/m3 11.55 °C 72.36 % 997.69 mbar 4.08 m/s 347.23 Deg 4.63 µg/m3
2022-01-11 07:00 17.9 µg/m3 1.65 µg/m3 56.95 µg/m3 15.72 µg/m3 µg/m3 11.17 °C 72.47 % 997.00 mbar 3.06 m/s 336.47 Deg 2.35 µg/m3
2022-01-11 06:00 13.3 µg/m3 1.41 µg/m3 62.72 µg/m3 9.1 µg/m3 µg/m3 11.02 °C 71.14 % 996.47 mbar 3.02 m/s 332.12 Deg 0.98 µg/m3
2022-01-11 05:00 6.66 µg/m3 1.59 µg/m3 70.24 µg/m3 8.97 µg/m3 µg/m3 11.03 °C 70.02 % 996.33 mbar 2.79 m/s 324.85 Deg 0.35 µg/m3
2022-01-11 04:00 6.48 µg/m3 1.48 µg/m3 72.35 µg/m3 9.93 µg/m3 µg/m3 11.35 °C 64.94 % 996.27 mbar 3.54 m/s 338.42 Deg 0.19 µg/m3
2022-01-11 03:00 4.22 µg/m3 1.31 µg/m3 71.83 µg/m3 10.84 µg/m3 µg/m3 10.86 °C 70.7 % 996.32 mbar 2.37 m/s 320.03 Deg 0.18 µg/m3
2022-01-11 02:00 5.63 µg/m3 1.41 µg/m3 72.94 µg/m3 15.12 µg/m3 µg/m3 11.15 °C 67.23 % 995.78 mbar 3.15 m/s 330.68 Deg 0.18 µg/m3
2022-01-11 01:00 5.95 µg/m3 1.55 µg/m3 71.57 µg/m3 24.83 µg/m3 µg/m3 10.73 °C 70.46 % 995.65 mbar 2.31 m/s 320.35 Deg 0.31 µg/m3
2022-01-11 00:00 8.36 µg/m3 1.34 µg/m3 71.5 µg/m3 15.65 µg/m3 µg/m3 11.19 °C 68.03 % 995.46 mbar 2.59 m/s 323.1 Deg 0.33 µg/m3
2022-01-10 23:00 5.54 µg/m3 1.42 µg/m3 76.38 µg/m3 11.69 µg/m3 µg/m3 11.53 °C 65.97 % 995.05 mbar 3.26 m/s 326.1 Deg 0.4 µg/m3
2022-01-10 22:00 5.62 µg/m3 1.24 µg/m3 75.55 µg/m3 13.4 µg/m3 µg/m3 11.61 °C 66.01 % 994.35 mbar 4.16 m/s 339.95 Deg 0.39 µg/m3
2022-01-10 21:00 8 µg/m3 1.51 µg/m3 72.67 µg/m3 16.14 µg/m3 µg/m3 11.72 °C 65.29 % 994.05 mbar 5.19 m/s 336.3 Deg 0.47 µg/m3
2022-01-10 20:00 9.71 µg/m3 1.41 µg/m3 71.31 µg/m3 18.25 µg/m3 µg/m3 11.6 °C 67.53 % 993.78 mbar 4.9 m/s 342.43 Deg 0.74 µg/m3
2022-01-10 19:00 9.79 µg/m3 1.22 µg/m3 71.55 µg/m3 17.28 µg/m3 µg/m3 11.5 °C 68.67 % 993.24 mbar 5.85 m/s 339.9 Deg 0.93 µg/m3
2022-01-10 18:00 11.65 µg/m3 1.36 µg/m3 70.26 µg/m3 20.76 µg/m3 µg/m3 11.42 °C 70.04 % 992.51 mbar 5.7 m/s 330.48 Deg 1.43 µg/m3
2022-01-10 17:00 12.28 µg/m3 1.34 µg/m3 70.33 µg/m3 14.07 µg/m3 µg/m3 11.49 °C 68.47 % 991.75 mbar 5.51 m/s 324.9 Deg 2.16 µg/m3
2022-01-10 16:00 10.9 µg/m3 1.4 µg/m3 72.28 µg/m3 15.33 µg/m3 µg/m3 12.04 °C 66.21 % 991.17 mbar 5.52 m/s 328.42 Deg 2.5 µg/m3
2022-01-10 15:00 10.05 µg/m3 1.12 µg/m3 73.7 µg/m3 15.38 µg/m3 µg/m3 12.24 °C 64.02 % 990.53 mbar 6.33 m/s 329.58 Deg 3.06 µg/m3
2022-01-10 14:00 8.67 µg/m3 1.19 µg/m3 74.75 µg/m3 13.37 µg/m3 µg/m3 12.56 °C 63.31 % 990.73 mbar 6.2 m/s 333.37 Deg 2.59 µg/m3
2022-01-10 13:00 8.83 µg/m3 1.37 µg/m3 75.25 µg/m3 11.5 µg/m3 µg/m3 12.75 °C 59.24 % 991.13 mbar 5.93 m/s 333 Deg 2.64 µg/m3
2022-01-10 12:00 14 µg/m3 1.18 µg/m3 70.75 µg/m3 11.92 µg/m3 µg/m3 11.52 °C 68.78 % 992.29 mbar 4.55 m/s 325.17 Deg 3.85 µg/m3
2022-01-10 11:00 13.61 µg/m3 1.37 µg/m3 67.75 µg/m3 17.62 µg/m3 µg/m3 12.23 °C 60.33 % 992.76 mbar 5.58 m/s 339.12 Deg 2.84 µg/m3
2022-01-10 10:00 21.54 µg/m3 1.09 µg/m3 61.48 µg/m3 11.19 µg/m3 µg/m3 11.28 °C 71.45 % 993.05 mbar 3.28 m/s 322.43 Deg 4.67 µg/m3
2022-01-10 09:00 25.4 µg/m3 1.19 µg/m3 59.52 µg/m3 6.6 µg/m3 µg/m3 9.52 °C 81.67 % 993.17 mbar 3.84 m/s 322.2 Deg 4.53 µg/m3
2022-01-10 08:00 39.18 µg/m3 1.3 µg/m3 44.47 µg/m3 7.31 µg/m3 µg/m3 9.6 °C 91.04 % 993.16 mbar 2.43 m/s 301.85 Deg 5.62 µg/m3
2022-01-10 07:00 27.25 µg/m3 1.22 µg/m3 56.15 µg/m3 7.33 µg/m3 µg/m3 9.07 °C 96.07 % 993.54 mbar 1.93 m/s 310.93 Deg 3.55 µg/m3
2022-01-10 06:00 9.88 µg/m3 1.11 µg/m3 72.94 µg/m3 8.87 µg/m3 µg/m3 9.03 °C 97.74 % 994.29 mbar 2.87 m/s 311.02 Deg 1.17 µg/m3
2022-01-10 05:00 4.07 µg/m3 1.17 µg/m3 74.75 µg/m3 9.29 µg/m3 µg/m3 9.55 °C 93.81 % 994.73 mbar 3.06 m/s 326.78 Deg 0.26 µg/m3
2022-01-10 04:00 2.01 µg/m3 1.03 µg/m3 81.05 µg/m3 7.75 µg/m3 µg/m3 9.66 °C 88.9 % 995.51 mbar 2.53 m/s 312.4 Deg 0.18 µg/m3
2022-01-10 03:00 1.96 µg/m3 1.1 µg/m3 78.61 µg/m3 9.64 µg/m3 µg/m3 10.7 °C 84.31 % 996.41 mbar 3.29 m/s 302.12 Deg 0.18 µg/m3
2022-01-10 02:00 2.08 µg/m3 1.2 µg/m3 79.87 µg/m3 11.76 µg/m3 µg/m3 10.45 °C 80.79 % 997.50 mbar 3.6 m/s 315.5 Deg 0.18 µg/m3
2022-01-10 01:00 1.75 µg/m3 1.35 µg/m3 82.14 µg/m3 11.88 µg/m3 µg/m3 11.92 °C 76.12 % 997.70 mbar 5.87 m/s 297.37 Deg 0.21 µg/m3
2022-01-10 00:00 2.28 µg/m3 1.38 µg/m3 80.99 µg/m3 14.63 µg/m3 µg/m3 12.27 °C 78.68 % 998.66 mbar 4.3 m/s 289.47 Deg 0.3 µg/m3
2022-01-09 23:00 2.94 µg/m3 1.31 µg/m3 81.07 µg/m3 12.46 µg/m3 µg/m3 11.63 °C 82.79 % 999.46 mbar 3.74 m/s 287.05 Deg 0.31 µg/m3
2022-01-09 22:00 5.02 µg/m3 1.12 µg/m3 78.95 µg/m3 15.01 µg/m3 µg/m3 10.91 °C 87.63 % 1,000.40 mbar 3.26 m/s 305.12 Deg 0.56 µg/m3
2022-01-09 21:00 5.82 µg/m3 1.28 µg/m3 78.17 µg/m3 19.47 µg/m3 µg/m3 12.79 °C 74.77 % 1,000.38 mbar 4.92 m/s 304.85 Deg 0.87 µg/m3
2022-01-09 20:00 7.44 µg/m3 1.42 µg/m3 74.92 µg/m3 28.6 µg/m3 µg/m3 12.93 °C 75.71 % 1,000.64 mbar 4.26 m/s 299.13 Deg 1.12 µg/m3
2022-01-09 19:00 7.86 µg/m3 1.25 µg/m3 73.44 µg/m3 31.79 µg/m3 µg/m3 13.77 °C 76.67 % 1,000.95 mbar 4.93 m/s 300.18 Deg 1.31 µg/m3
2022-01-09 18:00 8.23 µg/m3 1.32 µg/m3 73.32 µg/m3 25.68 µg/m3 µg/m3 13.66 °C 75.61 % 1,001.19 mbar 5.06 m/s 303.8 Deg 0.99 µg/m3
2022-01-09 17:00 7.05 µg/m3 1.35 µg/m3 75.94 µg/m3 18.49 µg/m3 µg/m3 13.75 °C 74.98 % 1,001.41 mbar 5.23 m/s 304.2 Deg 0.97 µg/m3
2022-01-09 16:00 7 µg/m3 1.18 µg/m3 74.62 µg/m3 16.03 µg/m3 µg/m3 13.84 °C 76.91 % 1,001.61 mbar 4.61 m/s 309.93 Deg 1.16 µg/m3
2022-01-09 15:00 6.95 µg/m3 1.34 µg/m3 74.27 µg/m3 18.78 µg/m3 µg/m3 14.04 °C 71.21 % 1,001.79 mbar 4.22 m/s 318.82 Deg 1.15 µg/m3
2022-01-09 14:00 6.95 µg/m3 1.41 µg/m3 75.32 µg/m3 16.83 µg/m3 µg/m3 14.11 °C 71.4 % 1,002.33 mbar 5.28 m/s 321.48 Deg 1.43 µg/m3
2022-01-09 13:00 7.59 µg/m3 1.5 µg/m3 72.91 µg/m3 13.34 µg/m3 µg/m3 14.86 °C 63.99 % 1,002.80 mbar 5.04 m/s 325.07 Deg 2.03 µg/m3
2022-01-09 12:00 8.32 µg/m3 1.54 µg/m3 68.23 µg/m3 14.09 µg/m3 µg/m3 14.85 °C 64.96 % 1,003.67 mbar 4.13 m/s 326.77 Deg 2.48 µg/m3
2022-01-09 11:00 8.23 µg/m3 1.53 µg/m3 67.8 µg/m3 21.47 µg/m3 µg/m3 14.02 °C 67.04 % 1,004.47 mbar 3.79 m/s 334.37 Deg 2.3 µg/m3
2022-01-09 10:00 10.63 µg/m3 1.36 µg/m3 65.69 µg/m3 24.47 µg/m3 µg/m3 13.43 °C 67 % 1,004.53 mbar 3.67 m/s 331.52 Deg 2.62 µg/m3
2022-01-09 09:00 11.52 µg/m3 1.5 µg/m3 64.35 µg/m3 11.88 µg/m3 µg/m3 12.58 °C 68.61 % 1,004.40 mbar 3 m/s 329.23 Deg 1.96 µg/m3
2022-01-09 08:00 9.32 µg/m3 1.47 µg/m3 66.72 µg/m3 7.68 µg/m3 µg/m3 12.1 °C 69.31 % 1,004.28 mbar 3.34 m/s 329.28 Deg 1.04 µg/m3
2022-01-09 07:00 8.78 µg/m3 1.38 µg/m3 68.61 µg/m3 7.88 µg/m3 µg/m3 12.03 °C 68.24 % 1,004.11 mbar 3.78 m/s 333.87 Deg 0.64 µg/m3
2022-01-09 06:00 7.37 µg/m3 1.42 µg/m3 71.74 µg/m3 9.29 µg/m3 µg/m3 12.16 °C 60.7 % 1,003.77 mbar 5.57 m/s 341.58 Deg 0.39 µg/m3
2022-01-09 05:00 10.06 µg/m3 1.67 µg/m3 70.97 µg/m3 9.36 µg/m3 µg/m3 12.18 °C 55.14 % 1,003.54 mbar 4.86 m/s 334.83 Deg 0.37 µg/m3
2022-01-09 04:00 3.71 µg/m3 1.25 µg/m3 77.34 µg/m3 10.3 µg/m3 µg/m3 12.06 °C 59.45 % 1,003.62 mbar 4.43 m/s 333.17 Deg 0.19 µg/m3
2022-01-09 03:00 4.94 µg/m3 1.59 µg/m3 73.72 µg/m3 10.5 µg/m3 µg/m3 11.8 °C 67.31 % 1,003.67 mbar 3.13 m/s 330.97 Deg 0.21 µg/m3
2022-01-09 02:00 5.99 µg/m3 1.2 µg/m3 72.33 µg/m3 11.01 µg/m3 µg/m3 11.77 °C 64.75 % 1,003.71 mbar 3.01 m/s 328.35 Deg 0.29 µg/m3
2022-01-09 01:00 11.95 µg/m3 1.21 µg/m3 68.47 µg/m3 9.88 µg/m3 µg/m3 12.19 °C 57.21 % 1,003.72 mbar 4.76 m/s 343.35 Deg 0.34 µg/m3
2022-01-09 00:00 9.29 µg/m3 1.4 µg/m3 69.65 µg/m3 12.77 µg/m3 µg/m3 12.29 °C 58.95 % 1,003.86 mbar 4.94 m/s 343.92 Deg 0.61 µg/m3
2022-01-08 23:00 7.53 µg/m3 1.64 µg/m3 70.61 µg/m3 20.96 µg/m3 µg/m3 12.5 °C 59.06 % 1,003.78 mbar 5.41 m/s 349 Deg 0.59 µg/m3
2022-01-08 22:00 6.5 µg/m3 1.22 µg/m3 69.84 µg/m3 20.92 µg/m3 µg/m3 12.44 °C 63.38 % 1,003.62 mbar 5.9 m/s 349.73 Deg 0.68 µg/m3
2022-01-08 21:00 13.41 µg/m3 1.23 µg/m3 62.64 µg/m3 12.95 µg/m3 µg/m3 12.55 °C 66.17 % 1,003.60 mbar 5.02 m/s 343.53 Deg 1.63 µg/m3
2022-01-08 20:00 19.73 µg/m3 1.25 µg/m3 56.23 µg/m3 13.36 µg/m3 µg/m3 12.64 °C 65.93 % 1,003.30 mbar 4.63 m/s 342.5 Deg 1.72 µg/m3
2022-01-08 19:00 11.22 µg/m3 1.22 µg/m3 65.48 µg/m3 16.23 µg/m3 µg/m3 12.6 °C 66.07 % 1,003.05 mbar 4.96 m/s 352.47 Deg 2 µg/m3
2022-01-08 18:00 9.46 µg/m3 1.35 µg/m3 66.47 µg/m3 14.34 µg/m3 µg/m3 12.76 °C 65.84 % 1,002.70 mbar 5.84 m/s 352.02 Deg 1.21 µg/m3
2022-01-08 17:00 11.19 µg/m3 1.32 µg/m3 64.44 µg/m3 14.27 µg/m3 µg/m3 13.22 °C 67.36 % 1,002.19 mbar 5.51 m/s 348.83 Deg 1.3 µg/m3
2022-01-08 16:00 11.02 µg/m3 1.09 µg/m3 66.01 µg/m3 17.16 µg/m3 µg/m3 13.67 °C 66.06 % 1,002.10 mbar 4.87 m/s 339.38 Deg 1.85 µg/m3
2022-01-08 15:00 10.32 µg/m3 1.12 µg/m3 66.35 µg/m3 16.87 µg/m3 µg/m3 13.45 °C 69.28 % 1,002.18 mbar 5.04 m/s 338.88 Deg 1.84 µg/m3
2022-01-08 14:00 9.36 µg/m3 1.4 µg/m3 67.21 µg/m3 14.02 µg/m3 µg/m3 13.74 °C 69.01 % 1,002.16 mbar 5.04 m/s 345.43 Deg 2.18 µg/m3
2022-01-08 13:00 9.05 µg/m3 1.17 µg/m3 66.48 µg/m3 11.18 µg/m3 µg/m3 13.7 °C 69.7 % 1,002.55 mbar 5.12 m/s 338.25 Deg 2.49 µg/m3
2022-01-08 12:00 10.3 µg/m3 1.14 µg/m3 61.95 µg/m3 14.38 µg/m3 µg/m3 14.11 °C 69.16 % 1,003.03 mbar 4.75 m/s 339.83 Deg 2.91 µg/m3
2022-01-08 11:00 10.67 µg/m3 1.18 µg/m3 0 µg/m3 20.06 µg/m3 µg/m3 13.84 °C 72.04 % 1,003.69 mbar 4.51 m/s 338.28 Deg 2.93 µg/m3
2022-01-08 10:00 13.31 µg/m3 1.31 µg/m3 0 µg/m3 27.16 µg/m3 µg/m3 13.25 °C 75.4 % 1,003.91 mbar 4.13 m/s 332.7 Deg 3.75 µg/m3
2022-01-08 09:00 15.44 µg/m3 1.12 µg/m3 0 µg/m3 15 µg/m3 µg/m3 12.06 °C 89.94 % 1,003.74 mbar 3.56 m/s 334.05 Deg 2.24 µg/m3
2022-01-08 08:00 12.08 µg/m3 1.15 µg/m3 0 µg/m3 11.56 µg/m3 µg/m3 13.17 °C 82.07 % 1,003.34 mbar 4.38 m/s 336.62 Deg 1.75 µg/m3
2022-01-08 07:00 9.46 µg/m3 1.16 µg/m3 0 µg/m3 12.04 µg/m3 µg/m3 13.37 °C 81.31 % 1,003.30 mbar 3.71 m/s 333.83 Deg 1.26 µg/m3
2022-01-08 06:00 7.34 µg/m3 1.25 µg/m3 0 µg/m3 17.11 µg/m3 µg/m3 13.26 °C 81.14 % 1,002.97 mbar 4.2 m/s 336.55 Deg 0.5 µg/m3
2022-01-08 05:00 4.09 µg/m3 1.29 µg/m3 0 µg/m3 25.39 µg/m3 µg/m3 13.02 °C 82.66 % 1,002.72 mbar 3.31 m/s 331.67 Deg 0.37 µg/m3
2022-01-08 04:00 8.65 µg/m3 1.11 µg/m3 0 µg/m3 18.8 µg/m3 µg/m3 13.34 °C 79.86 % 1,002.77 mbar 4.83 m/s 341.93 Deg 0.27 µg/m3
2022-01-08 03:00 12.62 µg/m3 1.24 µg/m3 0 µg/m3 16.3 µg/m3 µg/m3 13.51 °C 80.17 % 1,003.11 mbar 4.48 m/s 339.78 Deg 0.25 µg/m3
2022-01-08 02:00 9.48 µg/m3 1.12 µg/m3 0 µg/m3 25.42 µg/m3 µg/m3 13.48 °C 77.21 % 1,003.16 mbar 4.61 m/s 348.03 Deg 0.27 µg/m3
2022-01-08 01:00 11.88 µg/m3 1.16 µg/m3 0 µg/m3 9.17 µg/m3 µg/m3 13.27 °C 79.42 % 1,003.25 mbar 4.12 m/s 343.03 Deg 0.45 µg/m3
2022-01-08 00:00 15.56 µg/m3 0.99 µg/m3 0 µg/m3 2.75 µg/m3 µg/m3 13.26 °C 80.64 % 1,003.42 mbar 4.56 m/s 343.42 Deg 0.36 µg/m3
2022-01-07 23:00 13.97 µg/m3 1.19 µg/m3 0 µg/m3 2.75 µg/m3 µg/m3 13.11 °C 83.27 % 1,003.61 mbar 3.01 m/s 334.87 Deg 0.78 µg/m3
2022-01-07 22:00 12.64 µg/m3 0.78 µg/m3 0 µg/m3 2.75 µg/m3 µg/m3 13.32 °C 80.56 % 1,003.52 mbar 3.19 m/s 260.15 Deg 0.62 µg/m3
2022-01-07 21:00 15.89 µg/m3 1.03 µg/m3 0 µg/m3 2.75 µg/m3 µg/m3 13.18 °C 81.06 % 1,003.48 mbar 3.69 m/s 345.9 Deg 0.64 µg/m3
2022-01-07 20:00 8.06 µg/m3 1.06 µg/m3 0 µg/m3 2.75 µg/m3 µg/m3 12.85 °C 79.49 % 1,003.48 mbar 3.9 m/s 96.03 Deg 0.96 µg/m3
2022-01-07 19:00 9.55 µg/m3 0.79 µg/m3 0 µg/m3 2.75 µg/m3 µg/m3 12.69 °C 87.08 % 1,003.22 mbar 4.66 m/s 176.35 Deg 1.33 µg/m3
2022-01-07 18:00 21.89 µg/m3 0.93 µg/m3 0 µg/m3 2.75 µg/m3 µg/m3 11.95 °C 95.82 % 1,002.79 mbar 4.3 m/s 174.5 Deg 2.95 µg/m3
2022-01-07 17:00 15.49 µg/m3 0.88 µg/m3 0 µg/m3 2.75 µg/m3 µg/m3 13.03 °C 87.55 % 1,002.53 mbar 5.01 m/s 348.65 Deg 1.61 µg/m3
2022-01-07 16:00 13.69 µg/m3 0.82 µg/m3 0 µg/m3 2.75 µg/m3 µg/m3 12.68 °C 91.89 % 1,002.33 mbar 4.13 m/s 339.17 Deg 1.62 µg/m3
2022-01-07 15:00 17.21 µg/m3 0.84 µg/m3 0 µg/m3 2.75 µg/m3 µg/m3 12.56 °C 94.87 % 1,002.23 mbar 4.18 m/s 333.47 Deg 2.15 µg/m3
2022-01-07 14:00 10.72 µg/m3 2.64 µg/m3 0 µg/m3 2.75 µg/m3 µg/m3 13.16 °C 89.27 % 1,002.22 mbar 3.39 m/s 337.9 Deg 18.99 µg/m3
2022-01-07 13:00 0 µg/m3 0 µg/m3 0 µg/m3 µg/m3 µg/m3 13.02 °C 92.63 % 1,002.62 mbar 3.11 m/s 324.84 Deg 0 µg/m3
2022-01-07 10:00 21.42 µg/m3 0.94 µg/m3 38.15 µg/m3 17.46 µg/m3 44.62 µg/m3 12.36 °C 99.29 % 1,003.36 mbar 3.76 m/s 4.77 Deg 2.46 µg/m3
2022-01-07 09:00 19.5 µg/m3 1.03 µg/m3 51.67 µg/m3 10.93 µg/m3 24.09 µg/m3 12.7 °C 97.99 % 1,003.14 mbar 3.04 m/s 335.33 Deg 2.43 µg/m3
2022-01-07 08:00 18.41 µg/m3 1.22 µg/m3 55.62 µg/m3 11.61 µg/m3 8.26 µg/m3 13.09 °C 91.27 % 1,003.05 mbar 2.97 m/s 338.13 Deg 2.27 µg/m3
2022-01-07 07:00 21.16 µg/m3 1.32 µg/m3 54.5 µg/m3 16.56 µg/m3 8.23 µg/m3 13.12 °C 87.38 % 1,002.72 mbar 2.59 m/s 334.1 Deg 1.67 µg/m3
2022-01-07 06:00 15.1 µg/m3 1.02 µg/m3 58.08 µg/m3 20.87 µg/m3 7.03 µg/m3 13 °C 89.72 % 1,002.55 mbar 3.07 m/s 348.45 Deg 0.81 µg/m3
2022-01-07 05:00 4.53 µg/m3 0.97 µg/m3 67.57 µg/m3 12.51 µg/m3 8.51 µg/m3 13.12 °C 89.2 % 1,002.52 mbar 3.59 m/s 265.72 Deg 0.39 µg/m3
2022-01-07 04:00 4.63 µg/m3 1.17 µg/m3 68.43 µg/m3 8.18 µg/m3 14.76 µg/m3 13.22 °C 89.73 % 1,002.82 mbar 3.13 m/s 267.58 Deg 0.37 µg/m3
2022-01-07 03:00 6.75 µg/m3 1.09 µg/m3 65.7 µg/m3 9.12 µg/m3 11.13 µg/m3 13.41 °C 87 % 1,002.97 mbar 3.67 m/s 345.7 Deg 0.28 µg/m3
2022-01-07 02:00 13.73 µg/m3 0.94 µg/m3 63.47 µg/m3 10.27 µg/m3 9.87 µg/m3 13.27 °C 83.32 % 1,003.05 mbar 3.34 m/s 342.95 Deg 0.32 µg/m3
2022-01-07 01:00 5.64 µg/m3 1.22 µg/m3 68.2 µg/m3 8.94 µg/m3 10.6 µg/m3 13.37 °C 86.33 % 1,003.25 mbar 4.09 m/s 342.12 Deg 0.3 µg/m3
2022-01-07 00:00 7.74 µg/m3 1.07 µg/m3 69.17 µg/m3 12.67 µg/m3 12.18 µg/m3 13.92 °C 82.08 % 1,003.55 mbar 4.16 m/s 346.88 Deg 0.42 µg/m3
2022-01-06 23:00 5.94 µg/m3 0.89 µg/m3 70.3 µg/m3 21.6 µg/m3 18.01 µg/m3 13.88 °C 85.36 % 1,003.51 mbar 4.48 m/s 266.07 Deg 0.45 µg/m3
2022-01-06 22:00 3.85 µg/m3 1.02 µg/m3 73.4 µg/m3 38.09 µg/m3 7.16 µg/m3 13.9 °C 88.57 % 1,003.29 mbar 3.98 m/s 1.55 Deg 0.78 µg/m3
2022-01-06 21:00 4.73 µg/m3 1.06 µg/m3 72.99 µg/m3 25.32 µg/m3 4.39 µg/m3 14.05 °C 87.68 % 1,002.99 mbar 4.31 m/s 23.88 Deg 0.58 µg/m3
2022-01-06 20:00 10.37 µg/m3 1.09 µg/m3 68.74 µg/m3 26.38 µg/m3 7.24 µg/m3 13.77 °C 88.87 % 1,002.99 mbar 3.33 m/s 21.48 Deg 0.91 µg/m3
2022-01-06 19:00 11.22 µg/m3 0.92 µg/m3 69.64 µg/m3 30.09 µg/m3 11.3 µg/m3 14.05 °C 87.5 % 1,002.61 mbar 3.41 m/s 18.65 Deg 1.15 µg/m3
2022-01-06 18:00 24.67 µg/m3 0.99 µg/m3 59.7 µg/m3 22.17 µg/m3 9.32 µg/m3 14.67 °C 89.63 % 1,002.27 mbar 2.12 m/s 33.18 Deg 2.85 µg/m3
2022-01-06 17:00 14.18 µg/m3 1.03 µg/m3 69.11 µg/m3 21.37 µg/m3 7.1 µg/m3 14.81 °C 88.34 % 1,001.94 mbar 1.81 m/s 189.47 Deg 1.64 µg/m3
2022-01-06 16:00 5.8 µg/m3 0.95 µg/m3 75 µg/m3 20.45 µg/m3 9.93 µg/m3 15.1 °C 86.12 % 1,001.85 mbar 2.42 m/s 211.05 Deg 0.77 µg/m3
2022-01-06 15:00 3.23 µg/m3 1.02 µg/m3 79.3 µg/m3 19.68 µg/m3 13.42 µg/m3 15.18 °C 86.86 % 1,002.02 mbar 2.65 m/s 198.07 Deg 0.48 µg/m3
2022-01-06 14:00 5.58 µg/m3 0.7 µg/m3 76.64 µg/m3 29.77 µg/m3 10.21 µg/m3 15.4 °C 86.15 % 1,002.07 mbar 3.04 m/s 135.22 Deg 1.1 µg/m3
2022-01-06 13:00 3.93 µg/m3 1.07 µg/m3 75.57 µg/m3 36.31 µg/m3 11.87 µg/m3 15.18 °C 85.86 % 1,002.61 mbar 2.61 m/s 164.5 Deg 0.7 µg/m3
2022-01-06 12:00 4.79 µg/m3 1.13 µg/m3 72.33 µg/m3 56.88 µg/m3 14.18 µg/m3 15.22 °C 84.1 % 1,003.39 mbar 2 m/s 178.86 Deg 1.08 µg/m3
2022-01-06 11:00 14.73 µg/m3 1.27 µg/m3 63.55 µg/m3 74.15 µg/m3 21.44 µg/m3 15.1 °C 83.46 % 1,004.09 mbar 1.61 m/s 86.27 Deg 3.79 µg/m3
2022-01-06 10:00 51.66 µg/m3 1.43 µg/m3 27.71 µg/m3 62.19 µg/m3 24.12 µg/m3 14.57 °C 86.01 % 1,004.49 mbar 1.44 m/s 32.68 Deg 23.48 µg/m3
2022-01-06 09:00 73.38 µg/m3 2 µg/m3 7.71 µg/m3 45.69 µg/m3 24.51 µg/m3 13.45 °C 88.79 % 1,004.43 mbar 1.13 m/s 9.67 Deg 60.99 µg/m3
2022-01-06 08:00 72.82 µg/m3 2.09 µg/m3 4.63 µg/m3 26.82 µg/m3 12.59 µg/m3 12.96 °C 90.27 % 1,004.42 mbar 1.16 m/s 170.7 Deg 62.72 µg/m3
2022-01-06 07:00 57.11 µg/m3 1.28 µg/m3 15.01 µg/m3 25.2 µg/m3 9.39 µg/m3 12.62 °C 89.99 % 1,004.59 mbar 1.28 m/s 322.4 Deg 11.37 µg/m3
2022-01-06 06:00 28.67 µg/m3 1.12 µg/m3 42.42 µg/m3 20.59 µg/m3 12.13 µg/m3 13.01 °C 88.62 % 1,004.33 mbar 1.46 m/s 327.53 Deg 2.3 µg/m3
2022-01-06 05:00 11.05 µg/m3 0.88 µg/m3 53.38 µg/m3 18.14 µg/m3 16.8 µg/m3 12.56 °C 89.51 % 1,004.20 mbar 1.35 m/s 322 Deg 0.63 µg/m3
2022-01-06 04:00 9.09 µg/m3 1.29 µg/m3 55.9 µg/m3 18.58 µg/m3 16.88 µg/m3 12.41 °C 90.19 % 1,004.45 mbar 1.28 m/s 324.87 Deg 0.51 µg/m3
2022-01-06 03:00 8 µg/m3 0.83 µg/m3 57.24 µg/m3 13.51 µg/m3 17.85 µg/m3 12.81 °C 88.31 % 1,004.71 mbar 1.24 m/s 322.33 Deg 0.36 µg/m3
2022-01-06 02:00 10.65 µg/m3 1.06 µg/m3 51.46 µg/m3 15.96 µg/m3 21.68 µg/m3 12.64 °C 92.17 % 1,005.11 mbar 1.27 m/s 319.02 Deg 0.4 µg/m3
2022-01-06 01:00 16.01 µg/m3 0.98 µg/m3 44.82 µg/m3 18.3 µg/m3 15.89 µg/m3 12.92 °C 94.23 % 1,005.21 mbar 1.89 m/s 306.5 Deg 0.53 µg/m3
2022-01-06 00:00 15.86 µg/m3 0.85 µg/m3 46.87 µg/m3 16.54 µg/m3 18.37 µg/m3 13.29 °C 93.35 % 1,005.50 mbar 1.56 m/s 308.35 Deg 0.78 µg/m3
2022-01-05 23:00 18.6 µg/m3 1.1 µg/m3 50.52 µg/m3 20.29 µg/m3 13.76 µg/m3 13.79 °C 94.11 % 1,005.63 mbar 1.68 m/s 298.92 Deg 1.15 µg/m3
2022-01-05 22:00 11.29 µg/m3 0.71 µg/m3 67.28 µg/m3 23.73 µg/m3 14.3 µg/m3 14.4 °C 94.09 % 1,005.53 mbar 1.72 m/s 276.88 Deg 0.48 µg/m3
2022-01-05 21:00 13.7 µg/m3 1.03 µg/m3 66.8 µg/m3 30.43 µg/m3 13.35 µg/m3 14.61 °C 95.38 % 1,005.39 mbar 2.02 m/s 280.42 Deg 0.7 µg/m3
2022-01-05 20:00 16.64 µg/m3 1.09 µg/m3 66.73 µg/m3 30.48 µg/m3 13.45 µg/m3 14.93 °C 93.61 % 1,005.53 mbar 2.17 m/s 279.35 Deg 0.97 µg/m3
2022-01-05 19:00 17.76 µg/m3 1.05 µg/m3 66.27 µg/m3 36.76 µg/m3 8.49 µg/m3 15.11 °C 92.51 % 1,005.36 mbar 2.64 m/s 261.33 Deg 0.83 µg/m3
2022-01-05 18:00 18.03 µg/m3 1.03 µg/m3 65.67 µg/m3 38.46 µg/m3 6.85 µg/m3 15.44 °C 91.63 % 1,005.05 mbar 2.72 m/s 255.6 Deg 1.29 µg/m3
2022-01-05 17:00 13.31 µg/m3 0.9 µg/m3 71.77 µg/m3 32.24 µg/m3 6.68 µg/m3 16.22 °C 86.41 % 1,004.85 mbar 2.95 m/s 253.83 Deg 1.59 µg/m3
2022-01-05 16:00 8.01 µg/m3 1.07 µg/m3 75.92 µg/m3 17.21 µg/m3 5.82 µg/m3 16.97 °C 81.48 % 1,004.64 mbar 3.91 m/s 243.28 Deg 1.65 µg/m3
2022-01-05 15:00 5.8 µg/m3 0.84 µg/m3 74.97 µg/m3 13.03 µg/m3 5.44 µg/m3 17.27 °C 78.05 % 1,004.63 mbar 4.05 m/s 245.48 Deg 1.45 µg/m3
2022-01-05 14:00 6.03 µg/m3 0.93 µg/m3 71.14 µg/m3 19.43 µg/m3 5.15 µg/m3 17.55 °C 75.71 % 1,004.96 mbar 4.57 m/s 254.38 Deg 1.91 µg/m3
2022-01-05 13:00 5.59 µg/m3 1.03 µg/m3 68.57 µg/m3 15.28 µg/m3 6.1 µg/m3 17.79 °C 74.63 % 1,005.46 mbar 4.79 m/s 236.35 Deg 2.06 µg/m3
2022-01-05 12:00 5.16 µg/m3 1.11 µg/m3 68.46 µg/m3 17.45 µg/m3 8.83 µg/m3 17.68 °C 76.12 % 1,006.15 mbar 4.4 m/s 233.08 Deg 1.77 µg/m3
2022-01-05 11:00 4.53 µg/m3 0.99 µg/m3 67.42 µg/m3 26.22 µg/m3 11.18 µg/m3 17.14 °C 80.53 % 1,006.82 mbar 5.3 m/s 227.95 Deg 1.51 µg/m3
2022-01-05 10:00 5.8 µg/m3 0.84 µg/m3 66.01 µg/m3 19.43 µg/m3 19.69 µg/m3 16.77 °C 82.03 % 1,007.05 mbar 4.58 m/s 233.13 Deg 1.83 µg/m3
2022-01-05 09:00 7.24 µg/m3 0.75 µg/m3 65.14 µg/m3 22.67 µg/m3 12.65 µg/m3 15.96 °C 86.81 % 1,006.84 mbar 3.94 m/s 229.77 Deg 1.81 µg/m3
2022-01-05 08:00 11.14 µg/m3 0.97 µg/m3 63.39 µg/m3 17.83 µg/m3 14.65 µg/m3 15.05 °C 90.36 % 1,006.83 mbar 3.29 m/s 233.87 Deg 1.99 µg/m3
2022-01-05 07:00 10.25 µg/m3 0.88 µg/m3 64.18 µg/m3 8.73 µg/m3 13.49 µg/m3 14.75 °C 92.37 % 1,007.05 mbar 2.84 m/s 230.87 Deg 1.61 µg/m3
2022-01-05 06:00 6.51 µg/m3 1.19 µg/m3 65.45 µg/m3 7.48 µg/m3 9.79 µg/m3 14.74 °C 93.49 % 1,007.27 mbar 2.22 m/s 225.33 Deg 0.75 µg/m3
2022-01-05 05:00 2.14 µg/m3 1.08 µg/m3 66.37 µg/m3 9.87 µg/m3 7.45 µg/m3 14.72 °C 91.24 % 1,007.58 mbar 2.86 m/s 222.55 Deg 0.3 µg/m3
2022-01-05 04:00 2.2 µg/m3 1.07 µg/m3 72.76 µg/m3 9.62 µg/m3 12.2 µg/m3 14.77 °C 88.58 % 1,008.21 mbar 2.79 m/s 230.15 Deg 0.29 µg/m3
2022-01-05 03:00 1.53 µg/m3 0.77 µg/m3 71.9 µg/m3 11.56 µg/m3 12.64 µg/m3 14.75 °C 92.72 % 1,008.57 mbar 3.27 m/s 231.68 Deg 0.26 µg/m3
2022-01-05 02:00 1.26 µg/m3 1.27 µg/m3 73.02 µg/m3 13.06 µg/m3 20.49 µg/m3 14.71 °C 95.18 % 1,008.96 mbar 2.5 m/s 235.02 Deg 0.25 µg/m3
2022-01-05 01:00 2.28 µg/m3 1.01 µg/m3 77.24 µg/m3 19.25 µg/m3 18.25 µg/m3 14.61 °C 97.2 % 1,009.26 mbar 2.19 m/s 244.28 Deg 0.27 µg/m3
2022-01-05 00:00 3.38 µg/m3 1.02 µg/m3 77.64 µg/m3 20.5 µg/m3 9.53 µg/m3 14.53 °C 99.37 % 1,009.80 mbar 2 m/s 242.08 Deg 0.32 µg/m3
2022-01-04 23:00 2.56 µg/m3 1.03 µg/m3 74.62 µg/m3 26.28 µg/m3 10.41 µg/m3 14.56 °C 99.95 % 1,010.34 mbar 2.37 m/s 225.08 Deg 0.31 µg/m3
2022-01-04 22:00 5.46 µg/m3 0.99 µg/m3 75.85 µg/m3 23.17 µg/m3 11.23 µg/m3 14.34 °C 99.9 % 1,010.52 mbar 2.3 m/s 234.4 Deg 0.49 µg/m3
2022-01-04 21:00 18.61 µg/m3 0.86 µg/m3 75.92 µg/m3 21.5 µg/m3 17.58 µg/m3 14.38 °C 99.95 % 1,010.84 mbar 1.48 m/s 235.77 Deg 0.55 µg/m3
2022-01-04 20:00 9.07 µg/m3 0.9 µg/m3 74.99 µg/m3 22.65 µg/m3 21.64 µg/m3 14.6 °C 98.26 % 1,011.16 mbar 2 m/s 238.4 Deg 0.75 µg/m3
2022-01-04 19:00 13.38 µg/m3 0.92 µg/m3 66.72 µg/m3 30.35 µg/m3 12.29 µg/m3 14.73 °C 95.46 % 1,011.50 mbar 1.94 m/s 239.23 Deg 1.18 µg/m3
2022-01-04 18:00 16.42 µg/m3 1.31 µg/m3 59.52 µg/m3 22.28 µg/m3 6.81 µg/m3 15 °C 93.7 % 1,011.59 mbar 2.6 m/s 235.7 Deg 2.47 µg/m3
2022-01-04 17:00 12.24 µg/m3 1.05 µg/m3 63.79 µg/m3 14.56 µg/m3 6.38 µg/m3 15.42 °C 91.32 % 1,011.73 mbar 3 m/s 247.88 Deg 1.9 µg/m3
2022-01-04 16:00 8.01 µg/m3 1.13 µg/m3 71.17 µg/m3 16.6 µg/m3 8.99 µg/m3 15.72 °C 89.27 % 1,011.88 mbar 3.05 m/s 258.72 Deg 1.18 µg/m3
2022-01-04 15:00 7.53 µg/m3 1.14 µg/m3 72.54 µg/m3 18.17 µg/m3 7.71 µg/m3 15.73 °C 87.47 % 1,012.25 mbar 3.16 m/s 258.63 Deg 1.43 µg/m3
2022-01-04 14:00 12.17 µg/m3 1.05 µg/m3 53.61 µg/m3 16.29 µg/m3 8.7 µg/m3 15.62 °C 86.02 % 1,012.78 mbar 3.45 m/s 244.33 Deg 1.66 µg/m3
2022-01-04 13:00 9.08 µg/m3 1.22 µg/m3 70.55 µg/m3 18.15 µg/m3 11.81 µg/m3 15.81 °C 83.01 % 1,013.45 mbar 3.7 m/s 256.82 Deg 2.56 µg/m3
2022-01-04 12:00 9.49 µg/m3 1.04 µg/m3 66.32 µg/m3 27.38 µg/m3 12.82 µg/m3 15.86 °C 80.89 % 1,014.06 mbar 3.24 m/s 276.98 Deg 2.84 µg/m3
2022-01-04 11:00 12.31 µg/m3 1.32 µg/m3 61.42 µg/m3 27.72 µg/m3 19.49 µg/m3 15.51 °C 81.22 % 1,014.67 mbar 2.45 m/s 285.25 Deg 3.59 µg/m3
2022-01-04 10:00 15.99 µg/m3 1.35 µg/m3 56.07 µg/m3 32.32 µg/m3 24.35 µg/m3 14.71 °C 84.03 % 1,014.90 mbar 2.78 m/s 295.33 Deg 4.72 µg/m3
2022-01-04 09:00 28.16 µg/m3 1.04 µg/m3 43.53 µg/m3 15.13 µg/m3 8.56 µg/m3 13.95 °C 87.67 % 1,014.89 mbar 2 m/s 292.35 Deg 5.24 µg/m3
2022-01-04 08:00 39.8 µg/m3 1.16 µg/m3 32.25 µg/m3 10.96 µg/m3 5.25 µg/m3 13.44 °C 89.23 % 1,014.61 mbar 1.4 m/s 292.35 Deg 6.31 µg/m3
2022-01-04 07:00 19.62 µg/m3 1.23 µg/m3 51.85 µg/m3 8.58 µg/m3 4.48 µg/m3 13.52 °C 87.48 % 1,014.52 mbar 1.8 m/s 298.58 Deg 2.46 µg/m3
2022-01-04 06:00 7.84 µg/m3 1.23 µg/m3 62.19 µg/m3 8.38 µg/m3 5.56 µg/m3 13.67 °C 86.19 % 1,014.59 mbar 2.58 m/s 312.53 Deg 0.99 µg/m3
2022-01-04 05:00 3.9 µg/m3 1.18 µg/m3 62.31 µg/m3 8.49 µg/m3 8.67 µg/m3 13.65 °C 87.77 % 1,014.61 mbar 2.11 m/s 302.03 Deg 0.55 µg/m3
2022-01-04 04:00 2.43 µg/m3 1.08 µg/m3 64.5 µg/m3 8.76 µg/m3 13.72 µg/m3 13.59 °C 88.78 % 1,015.00 mbar 2.57 m/s 304.85 Deg 0.31 µg/m3
2022-01-04 03:00 2.34 µg/m3 1.34 µg/m3 65.18 µg/m3 9.97 µg/m3 22.52 µg/m3 13.56 °C 89.38 % 1,015.25 mbar 2.21 m/s 300.23 Deg 0.26 µg/m3
2022-01-04 02:00 2 µg/m3 1.07 µg/m3 67.1 µg/m3 12.85 µg/m3 28.98 µg/m3 13.54 °C 90.02 % 1,015.39 mbar 2.63 m/s 301.5 Deg 0.39 µg/m3
2022-01-04 01:00 2.52 µg/m3 1.13 µg/m3 65.88 µg/m3 14.98 µg/m3 13.26 µg/m3 13.66 °C 90.9 % 1,015.59 mbar 1.9 m/s 310.57 Deg 0.3 µg/m3
2022-01-04 00:00 5.33 µg/m3 1.06 µg/m3 61.02 µg/m3 17.71 µg/m3 10.96 µg/m3 13.6 °C 91.08 % 1,015.72 mbar 2.17 m/s 310.78 Deg 0.54 µg/m3
2022-01-03 23:00 4.94 µg/m3 1.37 µg/m3 62.95 µg/m3 13.23 µg/m3 18.3 µg/m3 13.66 °C 90.31 % 1,015.85 mbar 2.37 m/s 304.18 Deg 0.48 µg/m3
2022-01-03 22:00 5.87 µg/m3 1.25 µg/m3 62.87 µg/m3 11.01 µg/m3 13.69 µg/m3 13.96 °C 90.18 % 1,015.96 mbar 2.13 m/s 320 Deg 0.61 µg/m3
2022-01-03 21:00 6.85 µg/m3 1.21 µg/m3 62.74 µg/m3 11.37 µg/m3 8.72 µg/m3 13.72 °C 90.02 % 1,015.81 mbar 2.06 m/s 311.68 Deg 0.6 µg/m3
2022-01-03 20:00 10.36 µg/m3 1.22 µg/m3 59.66 µg/m3 18.12 µg/m3 7.63 µg/m3 13.91 °C 89.28 % 1,015.65 mbar 2.39 m/s 306.82 Deg 1.38 µg/m3
2022-01-03 19:00 13.06 µg/m3 1.21 µg/m3 58.72 µg/m3 31.36 µg/m3 4.06 µg/m3 13.92 °C 87.69 % 1,015.65 mbar 2.36 m/s 321.37 Deg 1.46 µg/m3
2022-01-03 18:00 13.75 µg/m3 0.94 µg/m3 57.97 µg/m3 20.94 µg/m3 2.83 µg/m3 13.98 °C 87.72 % 1,015.53 mbar 3.43 m/s 315.9 Deg 2.18 µg/m3
2022-01-03 17:00 15.05 µg/m3 1.01 µg/m3 56.41 µg/m3 21.85 µg/m3 3.74 µg/m3 14.25 °C 85.81 % 1,015.49 mbar 3.3 m/s 317.72 Deg 2.87 µg/m3
2022-01-03 16:00 12.29 µg/m3 1.31 µg/m3 54.72 µg/m3 21.55 µg/m3 7.1 µg/m3 14.63 °C 84.34 % 1,015.49 mbar 3.67 m/s 316.08 Deg 2.97 µg/m3
2022-01-03 15:00 11.82 µg/m3 1.25 µg/m3 56.49 µg/m3 17.75 µg/m3 9.64 µg/m3 14.89 °C 83.48 % 1,015.77 mbar 3.62 m/s 320.77 Deg 2.97 µg/m3
2022-01-03 14:00 12.3 µg/m3 1.16 µg/m3 58.02 µg/m3 22.88 µg/m3 14.42 µg/m3 14.81 °C 82.93 % 1,016.21 mbar 3.66 m/s 307.2 Deg 3.43 µg/m3
2022-01-03 13:00 10.21 µg/m3 1.2 µg/m3 60.98 µg/m3 18.18 µg/m3 8.22 µg/m3 14.99 °C 82.17 % 1,016.70 mbar 3.63 m/s 309.87 Deg 3.1 µg/m3
2022-01-03 12:00 10.31 µg/m3 1.34 µg/m3 59.98 µg/m3 17.05 µg/m3 7.43 µg/m3 14.8 °C 81.71 % 1,017.47 mbar 3.54 m/s 304.08 Deg 3.56 µg/m3
2022-01-03 11:00 10.55 µg/m3 1.13 µg/m3 59 µg/m3 20.19 µg/m3 5.7 µg/m3 14.36 °C 83.45 % 1,017.89 mbar 4.13 m/s 311.95 Deg 3.8 µg/m3
2022-01-03 10:00 13.8 µg/m3 1.05 µg/m3 53.88 µg/m3 11.37 µg/m3 7.57 µg/m3 14.11 °C 85.59 % 1,017.74 mbar 3.25 m/s 308.13 Deg 3.74 µg/m3
2022-01-03 09:00 19.91 µg/m3 1.28 µg/m3 45.75 µg/m3 9.25 µg/m3 9.63 µg/m3 13.69 °C 87.93 % 1,017.47 mbar 2.3 m/s 307.1 Deg 3.79 µg/m3
2022-01-03 08:00 21.2 µg/m3 1.34 µg/m3 43.85 µg/m3 8.7 µg/m3 6.12 µg/m3 13.36 °C 89.98 % 1,017.32 mbar 2.22 m/s 295.55 Deg 2.83 µg/m3
2022-01-03 07:00 18.09 µg/m3 1.04 µg/m3 47.09 µg/m3 10.88 µg/m3 5.21 µg/m3 13.4 °C 91.23 % 1,017.39 mbar 1.92 m/s 308.13 Deg 2.24 µg/m3
2022-01-03 06:00 6.56 µg/m3 1.22 µg/m3 58.84 µg/m3 12.38 µg/m3 7.45 µg/m3 13.41 °C 90.9 % 1,017.29 mbar 2.86 m/s 305.93 Deg 0.83 µg/m3
2022-01-03 05:00 3.74 µg/m3 1.35 µg/m3 59.32 µg/m3 10.14 µg/m3 10.27 µg/m3 13.42 °C 92.62 % 1,017.40 mbar 2.3 m/s 299.38 Deg 0.44 µg/m3
2022-01-03 04:00 4.67 µg/m3 1.3 µg/m3 53.27 µg/m3 9.21 µg/m3 12.01 µg/m3 13.35 °C 94.8 % 1,017.83 mbar 1.52 m/s 292.9 Deg 0.46 µg/m3
2022-01-03 03:00 4.18 µg/m3 0.95 µg/m3 54.45 µg/m3 11.88 µg/m3 15.66 µg/m3 13.21 °C 96.8 % 1,018.10 mbar 1.66 m/s 292.32 Deg 0.46 µg/m3
2022-01-03 02:00 5.08 µg/m3 1.05 µg/m3 54.68 µg/m3 14.75 µg/m3 11.23 µg/m3 12.82 °C 98.7 % 1,018.31 mbar 1.4 m/s 279.55 Deg 0.49 µg/m3
2022-01-03 01:00 16.73 µg/m3 1.16 µg/m3 36.58 µg/m3 12.95 µg/m3 8.51 µg/m3 12.41 °C 99.99 % 1,018.76 mbar 1.03 m/s 281.27 Deg 0.75 µg/m3
2022-01-03 00:00 16.87 µg/m3 1.09 µg/m3 34.67 µg/m3 18.33 µg/m3 8.3 µg/m3 12.51 °C 99.91 % 1,019.19 mbar 0.69 m/s 273.3 Deg 1.04 µg/m3
2022-01-02 23:00 20.12 µg/m3 1.06 µg/m3 32.52 µg/m3 27.18 µg/m3 8.47 µg/m3 12.82 °C 99.93 % 1,019.46 mbar 0.71 m/s 291.77 Deg 1.06 µg/m3
2022-01-02 22:00 28.72 µg/m3 1.13 µg/m3 24.8 µg/m3 37.75 µg/m3 14.92 µg/m3 13.13 °C 99.97 % 1,019.45 mbar 0.76 m/s 241.12 Deg 1.7 µg/m3
2022-01-02 21:00 28.56 µg/m3 1.09 µg/m3 28.94 µg/m3 29.47 µg/m3 8.45 µg/m3 13.54 °C 99.46 % 1,019.46 mbar 0.75 m/s 294.75 Deg 2.26 µg/m3
2022-01-02 20:00 25.06 µg/m3 1.06 µg/m3 39.15 µg/m3 27.07 µg/m3 5.29 µg/m3 13.92 °C 97.65 % 1,019.31 mbar 1.28 m/s 286.08 Deg 1.69 µg/m3
2022-01-02 19:00 30.45 µg/m3 1.11 µg/m3 36.94 µg/m3 16.37 µg/m3 5.06 µg/m3 14.31 °C 95.01 % 1,019.25 mbar 0.91 m/s 285.92 Deg 1.85 µg/m3
2022-01-02 18:00 38.08 µg/m3 1.19 µg/m3 31.96 µg/m3 12.75 µg/m3 7.36 µg/m3 15.33 °C 87.64 % 1,019.25 mbar 1.1 m/s 329.68 Deg 3.67 µg/m3
2022-01-02 17:00 19.61 µg/m3 1.19 µg/m3 51.96 µg/m3 14.97 µg/m3 7.79 µg/m3 16.96 °C 77.75 % 1,018.89 mbar 1.2 m/s 251.7 Deg 2.72 µg/m3
2022-01-02 16:00 9.62 µg/m3 1.17 µg/m3 64.59 µg/m3 9.68 µg/m3 6.97 µg/m3 17.93 °C 68.46 % 1,018.64 mbar 1.62 m/s 250.25 Deg 1.58 µg/m3
2022-01-02 15:00 9.36 µg/m3 1.19 µg/m3 68.68 µg/m3 9.47 µg/m3 6.25 µg/m3 17.79 °C 72.53 % 1,018.70 mbar 1.82 m/s 212.62 Deg 1.77 µg/m3
2022-01-02 14:00 10.31 µg/m3 1.3 µg/m3 67.35 µg/m3 9.94 µg/m3 7.59 µg/m3 17.88 °C 73.82 % 1,018.83 mbar 1.67 m/s 89.68 Deg 2.76 µg/m3
2022-01-02 13:00 7.19 µg/m3 1.11 µg/m3 67.99 µg/m3 11.43 µg/m3 9.81 µg/m3 18.11 °C 72.52 % 1,019.31 mbar 1.37 m/s 243.53 Deg 1.67 µg/m3
2022-01-02 12:00 10.59 µg/m3 1.14 µg/m3 63.91 µg/m3 16.22 µg/m3 13.1 µg/m3 17.22 °C 75.2 % 1,019.89 mbar 1.63 m/s 189.7 Deg 2.63 µg/m3
2022-01-02 11:00 13.81 µg/m3 1.09 µg/m3 57.38 µg/m3 22.06 µg/m3 19.3 µg/m3 16.63 °C 78.44 % 1,020.25 mbar 1.88 m/s 187.38 Deg 3.64 µg/m3
2022-01-02 10:00 10.62 µg/m3 1.05 µg/m3 52.66 µg/m3 33.53 µg/m3 35.86 µg/m3 15.96 °C 83.2 % 1,020.26 mbar 1.6 m/s 206.1 Deg 2.6 µg/m3
2022-01-02 09:00 21.84 µg/m3 1.21 µg/m3 38.14 µg/m3 32.4 µg/m3 22.66 µg/m3 14.67 °C 91.24 % 1,019.86 mbar 1.2 m/s 241.82 Deg 5.46 µg/m3
2022-01-02 08:00 24.15 µg/m3 1.1 µg/m3 37.96 µg/m3 17.76 µg/m3 10.46 µg/m3 13.75 °C 94.39 % 1,019.57 mbar 1.09 m/s 240.77 Deg 4.24 µg/m3
2022-01-02 07:00 19.17 µg/m3 1.18 µg/m3 32.93 µg/m3 12.39 µg/m3 8.3 µg/m3 12.71 °C 99.01 % 1,019.12 mbar 1.78 m/s 298.1 Deg 1.56 µg/m3
2022-01-02 06:00 9.55 µg/m3 1.09 µg/m3 39.91 µg/m3 18.22 µg/m3 12.01 µg/m3 12.47 °C 99.9 % 1,018.65 mbar 1.98 m/s 302.43 Deg 0.9 µg/m3
2022-01-02 05:00 6.33 µg/m3 -8.24 µg/m3 41.48 µg/m3 11.67 µg/m3 12.98 µg/m3 12.61 °C 99.9 % 1,018.47 mbar 1.73 m/s 308.8 Deg 0.67 µg/m3
2022-01-02 04:00 5.57 µg/m3 1.16 µg/m3 40.67 µg/m3 10.2 µg/m3 21.29 µg/m3 12.81 °C 99.9 % 1,018.46 mbar 1.4 m/s 315.17 Deg 0.4 µg/m3
2022-01-02 03:00 6.37 µg/m3 0.97 µg/m3 39.32 µg/m3 14.51 µg/m3 15.09 µg/m3 13.14 °C 99.93 % 1,018.45 mbar 1.74 m/s 311.9 Deg 0.45 µg/m3
2022-01-02 02:00 10.94 µg/m3 0.94 µg/m3 40.21 µg/m3 23.47 µg/m3 11.33 µg/m3 13.84 °C 98.58 % 1,018.41 mbar 1.25 m/s 319.77 Deg 0.64 µg/m3
2022-01-02 01:00 17.3 µg/m3 0.8 µg/m3 40.58 µg/m3 26.46 µg/m3 4.13 µg/m3 14.55 °C 96.02 % 1,018.35 mbar 1.82 m/s 338 Deg 0.62 µg/m3
2022-01-02 00:00 4.64 µg/m3 0.99 µg/m3 54.22 µg/m3 29.39 µg/m3 3.17 µg/m3 14.87 °C 96.06 % 1,018.52 mbar 2.93 m/s 267.52 Deg 0.48 µg/m3
2022-01-01 23:00 8.49 µg/m3 0.92 µg/m3 50.65 µg/m3 29.44 µg/m3 6.34 µg/m3 14.86 °C 97.25 % 1,018.41 mbar 2.9 m/s 352.17 Deg 0.9 µg/m3
2022-01-01 22:00 7.77 µg/m3 1.16 µg/m3 50.85 µg/m3 33.1 µg/m3 12.67 µg/m3 14.59 °C 97.96 % 1,018.28 mbar 3.62 m/s 348.75 Deg 1.09 µg/m3
2022-01-01 21:00 12.83 µg/m3 1.28 µg/m3 44.65 µg/m3 24.92 µg/m3 25.35 µg/m3 14.4 °C 98.19 % 1,018.07 mbar 3.69 m/s 347.27 Deg 0.98 µg/m3
2022-01-01 20:00 13.9 µg/m3 1.14 µg/m3 45.54 µg/m3 18.34 µg/m3 50.71 µg/m3 14.53 °C 97.48 % 1,017.67 mbar 3.65 m/s 331.3 Deg 1.25 µg/m3
2022-01-01 19:00 12.2 µg/m3 1.2 µg/m3 51.34 µg/m3 14.97 µg/m3 101.42 µg/m3 14.64 °C 97.57 % 1,017.41 mbar 2.86 m/s 338.28 Deg 1.92 µg/m3
2022-01-01 18:00 11.87 µg/m3 0.92 µg/m3 53.73 µg/m3 16.02 µg/m3 202.84 µg/m3 14.74 °C 96.47 % 1,017.21 mbar 2.11 m/s 336.4 Deg 1.4 µg/m3
2022-01-01 17:00 10.16 µg/m3 1.1 µg/m3 59.65 µg/m3 22.14 µg/m3 69.82 µg/m3 15.34 °C 92.81 % 1,016.92 mbar 2.75 m/s 321.7 Deg 1.74 µg/m3
2022-01-01 16:00 6.4 µg/m3 1.02 µg/m3 65.3 µg/m3 23.53 µg/m3 8.25 µg/m3 16.14 °C 88.15 % 1,016.75 mbar 3.73 m/s 312.05 Deg 1.74 µg/m3
2022-01-01 15:00 9.63 µg/m3 1.12 µg/m3 60.55 µg/m3 13.77 µg/m3 6.59 µg/m3 16.81 °C 84.48 % 1,016.96 mbar 3.02 m/s 315.48 Deg 2.41 µg/m3
2022-01-01 14:00 7.3 µg/m3 0.99 µg/m3 63.92 µg/m3 11.67 µg/m3 6.54 µg/m3 17.13 °C 83.18 % 1,017.06 mbar 2.5 m/s 313.22 Deg 2.07 µg/m3
2022-01-01 13:00 11.48 µg/m3 1.19 µg/m3 57.32 µg/m3 15.59 µg/m3 9.76 µg/m3 17.27 °C 83.97 % 1,017.63 mbar 2.55 m/s 308.2 Deg 4.14 µg/m3
2022-01-01 12:00 9.55 µg/m3 1.19 µg/m3 58.28 µg/m3 20.77 µg/m3 14.24 µg/m3 17.07 °C 85.38 % 1,018.19 mbar 2.44 m/s 318.7 Deg 3.22 µg/m3
2022-01-01 11:00 10.11 µg/m3 1.35 µg/m3 55 µg/m3 29.97 µg/m3 24.44 µg/m3 16.67 °C 87.99 % 1,018.66 mbar 2.42 m/s 317.93 Deg 3.45 µg/m3
2022-01-01 10:00 10.5 µg/m3 1.2 µg/m3 48.64 µg/m3 52.8 µg/m3 29.28 µg/m3 15.56 °C 94.22 % 1,018.66 mbar 2.55 m/s 312.37 Deg 3.11 µg/m3
2022-01-01 09:00 19.21 µg/m3 1.42 µg/m3 35.85 µg/m3 31.12 µg/m3 19.87 µg/m3 13.75 °C 99.82 % 1,018.46 mbar 1.61 m/s 291.32 Deg 4.55 µg/m3
2022-01-01 08:00 24.26 µg/m3 1.17 µg/m3 29.01 µg/m3 21.26 µg/m3 22.57 µg/m3 12.87 °C 99.9 % 1,018.37 mbar 1.06 m/s 320.05 Deg 6.19 µg/m3
2022-01-01 07:00 17 µg/m3 1.31 µg/m3 33.87 µg/m3 15.38 µg/m3 18.44 µg/m3 12.62 °C 99.9 % 1,018.19 mbar 1.42 m/s 300.73 Deg 1.3 µg/m3
2022-01-01 06:00 12.26 µg/m3 1.16 µg/m3 35.3 µg/m3 15.38 µg/m3 9.81 µg/m3 12.71 °C 99.9 % 1,018.11 mbar 1.08 m/s 298.91 Deg 0.89 µg/m3
2022-01-01 05:00 9.07 µg/m3 1.27 µg/m3 42.41 µg/m3 14.76 µg/m3 11.92 µg/m3 12.77 °C 99.87 % 1,018.13 mbar 1.4 m/s 312.72 Deg 0.81 µg/m3
2022-01-01 04:00 10.26 µg/m3 1.43 µg/m3 53.75 µg/m3 10.45 µg/m3 14.99 µg/m3 13.01 °C 93.88 % 1,018.37 mbar 1.76 m/s 312.58 Deg 0.56 µg/m3
2022-01-01 03:00 16.96 µg/m3 -0.4 µg/m3 51.71 µg/m3 12.26 µg/m3 17.15 µg/m3 12.87 °C 73.6 % 1,018.79 mbar 1.57 m/s 324.2 Deg 0.95 µg/m3
2022-01-01 02:00 20.1 µg/m3 1.28 µg/m3 50.52 µg/m3 15.52 µg/m3 15.79 µg/m3 12.91 °C 58.68 % 1,018.76 mbar 1.51 m/s 326.25 Deg 1.43 µg/m3
2022-01-01 01:00 17.91 µg/m3 1.41 µg/m3 51.89 µg/m3 25.12 µg/m3 14.71 µg/m3 13.17 °C 64.26 % 1,018.85 mbar 1.91 m/s 313.02 Deg 1.18 µg/m3
2022-01-01 00:00 12.65 µg/m3 1.36 µg/m3 58.94 µg/m3 32.14 µg/m3 16.2 µg/m3 13.41 °C 75.76 % 1,019.01 mbar 1.59 m/s 311.53 Deg 0.69 µg/m3
2021-12-31 23:00 19.8 µg/m3 1.53 µg/m3 52.23 µg/m3 24.95 µg/m3 15.28 µg/m3 13.54 °C 71.15 % 1,019.26 mbar 2.16 m/s 306.38 Deg 1.15 µg/m3
2021-12-31 22:00 38.63 µg/m3 1.39 µg/m3 34.76 µg/m3 21.72 µg/m3 18.68 µg/m3 13.64 °C 56.09 % 1,019.26 mbar 2 m/s 309.87 Deg 2.2 µg/m3
2021-12-31 21:00 47.92 µg/m3 1.09 µg/m3 31.49 µg/m3 22.34 µg/m3 16.1 µg/m3 14.19 °C 57.74 % 1,019.12 mbar 1.94 m/s 303.07 Deg 3.85 µg/m3
2021-12-31 20:00 48.55 µg/m3 1.51 µg/m3 29.91 µg/m3 27.34 µg/m3 13.69 µg/m3 13.95 °C 78.41 % 1,018.92 mbar 1.77 m/s 303.65 Deg 5.22 µg/m3
2021-12-31 19:00 56.11 µg/m3 1.49 µg/m3 24.7 µg/m3 20.67 µg/m3 6.62 µg/m3 14.4 °C 84.61 % 1,018.74 mbar 1.8 m/s 305.18 Deg 6.85 µg/m3
2021-12-31 18:00 38.34 µg/m3 1.39 µg/m3 45.75 µg/m3 17.29 µg/m3 4.59 µg/m3 15.15 °C 81.53 % 1,018.20 mbar 1.34 m/s 336.87 Deg 3.47 µg/m3
2021-12-31 17:00 14.88 µg/m3 1.17 µg/m3 68.84 µg/m3 25.69 µg/m3 4.75 µg/m3 15.82 °C 78.17 % 1,017.65 mbar 2.09 m/s 351.12 Deg 1.63 µg/m3
2021-12-31 16:00 11.13 µg/m3 1.23 µg/m3 75.84 µg/m3 19.64 µg/m3 6.55 µg/m3 16.57 °C 70.67 % 1,017.21 mbar 2.4 m/s 94.92 Deg 2.05 µg/m3
2021-12-31 15:00 9.06 µg/m3 1.2 µg/m3 77.32 µg/m3 12.43 µg/m3 6.65 µg/m3 16.87 °C 67.62 % 1,016.94 mbar 2.66 m/s 181.17 Deg 2.34 µg/m3
2021-12-31 14:00 8.28 µg/m3 1.23 µg/m3 74.91 µg/m3 14.13 µg/m3 6.93 µg/m3 17.22 °C 61.6 % 1,016.89 mbar 2.9 m/s 92.75 Deg 2.45 µg/m3
2021-12-31 13:00 13.87 µg/m3 1.35 µg/m3 68.61 µg/m3 20.81 µg/m3 9.04 µg/m3 17.66 °C 62.62 % 1,017.10 mbar 2.53 m/s 176.48 Deg 4.06 µg/m3
2021-12-31 12:00 17 µg/m3 1.25 µg/m3 63.06 µg/m3 27.59 µg/m3 12.41 µg/m3 17.46 °C 64.58 % 1,017.36 mbar 2.08 m/s 327.07 Deg 4.89 µg/m3
2021-12-31 11:00 20.73 µg/m3 1.2 µg/m3 55.56 µg/m3 38.97 µg/m3 19.79 µg/m3 16.76 °C 72.7 % 1,017.44 mbar 1.97 m/s 314.35 Deg 6.5 µg/m3
2021-12-31 10:00 42.77 µg/m3 1.58 µg/m3 31.26 µg/m3 43.83 µg/m3 36.7 µg/m3 15.51 °C 82.76 % 1,017.07 mbar 1.65 m/s 303.73 Deg 21.59 µg/m3
2021-12-31 09:00 58.77 µg/m3 1.72 µg/m3 14.16 µg/m3 42.03 µg/m3 15.16 µg/m3 13.53 °C 85.52 % 1,016.68 mbar 1.56 m/s 310.7 Deg 33.71 µg/m3
2021-12-31 08:00 56.44 µg/m3 1.5 µg/m3 12.14 µg/m3 20.96 µg/m3 9.24 µg/m3 12.58 °C 86.34 % 1,016.09 mbar 1.81 m/s 310.95 Deg 16.13 µg/m3
2021-12-31 07:00 35.51 µg/m3 1.1 µg/m3 29.37 µg/m3 16.56 µg/m3 16.05 µg/m3 12.71 °C 88.96 % 1,015.35 mbar 1.96 m/s 304.4 Deg 4.53 µg/m3
2021-12-31 06:00 20.61 µg/m3 1.05 µg/m3 35.45 µg/m3 13.03 µg/m3 10.41 µg/m3 12.85 °C 89.04 % 1,014.66 mbar 1.84 m/s 313.88 Deg 1.7 µg/m3
2021-12-31 05:00 11.11 µg/m3 1.04 µg/m3 60.31 µg/m3 13.63 µg/m3 12.92 µg/m3 14.19 °C 82.02 % 1,014.33 mbar 0.33 m/s 124.19 Deg 3.01 µg/m3
2021-12-31 04:00 14.06 µg/m3 1.09 µg/m3 45.95 µg/m3 20.32 µg/m3 19.69 µg/m3 13.73 °C 88.33 % 1,014.30 mbar 1.47 m/s 292.97 Deg 0.95 µg/m3
2021-12-31 03:00 8.72 µg/m3 1.22 µg/m3 56.16 µg/m3 18.33 µg/m3 25.86 µg/m3 14.4 °C 84.87 % 1,014.23 mbar 0.58 m/s 253.52 Deg 0.48 µg/m3
2021-12-31 02:00 6.57 µg/m3 1.11 µg/m3 63.89 µg/m3 22.52 µg/m3 28.9 µg/m3 14.34 °C 86.62 % 1,014.00 mbar 1.14 m/s 117.45 Deg 0.33 µg/m3
2021-12-31 01:00 11.05 µg/m3 0.84 µg/m3 60.31 µg/m3 33.45 µg/m3 16.15 µg/m3 14.43 °C 85.95 % 1,013.60 mbar 1.61 m/s 27.17 Deg 0.46 µg/m3
2021-12-31 00:00 9.87 µg/m3 0.81 µg/m3 62.76 µg/m3 28.04 µg/m3 18.44 µg/m3 14.88 °C 84.29 % 1,013.43 mbar 1.99 m/s 48.42 Deg 0.61 µg/m3
2021-12-30 23:00 16.05 µg/m3 0.81 µg/m3 54.49 µg/m3 34.71 µg/m3 15.78 µg/m3 14.6 °C 91.48 % 1,012.99 mbar 1.59 m/s 42.87 Deg 1.85 µg/m3
2021-12-30 22:00 22.16 µg/m3 1.05 µg/m3 38.72 µg/m3 38.65 µg/m3 19.77 µg/m3 14.46 °C 99.84 % 1,012.48 mbar 0.98 m/s 114.89 Deg 1.04 µg/m3
2021-12-30 21:00 23.68 µg/m3 1.08 µg/m3 39.4 µg/m3 33.87 µg/m3 26.82 µg/m3 15.07 °C 99.91 % 1,011.85 mbar 0.75 m/s 189.54 Deg 0.99 µg/m3
2021-12-30 20:00 42.77 µg/m3 1.15 µg/m3 22.34 µg/m3 36.16 µg/m3 14.19 µg/m3 15.05 °C 98.59 % 1,011.42 mbar 0.7 m/s 255.86 Deg 6.68 µg/m3
2021-12-30 19:00 56.82 µg/m3 1.06 µg/m3 14.54 µg/m3 32.67 µg/m3 6.69 µg/m3 15.36 °C 94.34 % 1,010.83 mbar 0.89 m/s 164.63 Deg 5.94 µg/m3
2021-12-30 18:00 59.25 µg/m3 0.96 µg/m3 18.26 µg/m3 28.74 µg/m3 6.4 µg/m3 15.55 °C 91.07 % 1,010.12 mbar 1.2 m/s 342.93 Deg 11.6 µg/m3
2021-12-30 17:00 15.4 µg/m3 0.94 µg/m3 59.07 µg/m3 20.8 µg/m3 9.66 µg/m3 15.96 °C 90.42 % 1,009.69 mbar 2.2 m/s 182.5 Deg 2.83 µg/m3
2021-12-30 16:00 8.71 µg/m3 0.83 µg/m3 64.6 µg/m3 18.06 µg/m3 6.38 µg/m3 16.4 °C 87.86 % 1,009.06 mbar 3.17 m/s 7.35 Deg 2.32 µg/m3
2021-12-30 15:00 6.25 µg/m3 0.88 µg/m3 63.78 µg/m3 16.08 µg/m3 6.33 µg/m3 16.6 °C 89.82 % 1,008.69 mbar 4.47 m/s 176.5 Deg 2.03 µg/m3
2021-12-30 14:00 10.51 µg/m3 0.85 µg/m3 58.43 µg/m3 22.82 µg/m3 7.17 µg/m3 16.94 °C 87.46 % 1,008.48 mbar 4.7 m/s 353.7 Deg 4.16 µg/m3
2021-12-30 13:00 15.91 µg/m3 1 µg/m3 55.27 µg/m3 29.65 µg/m3 11.99 µg/m3 16.99 °C 86.9 % 1,008.47 mbar 4.4 m/s 343.25 Deg 5.59 µg/m3
2021-12-30 12:00 20.1 µg/m3 0.98 µg/m3 49.68 µg/m3 36.7 µg/m3 22.32 µg/m3 16.89 °C 88.46 % 1,008.47 mbar 5.08 m/s 349.1 Deg 8.48 µg/m3
2021-12-30 11:00 19.79 µg/m3 1.02 µg/m3 48.55 µg/m3 44.49 µg/m3 24.72 µg/m3 16.74 °C 89.51 % 1,008.85 mbar 5.41 m/s 346.32 Deg 7.74 µg/m3
2021-12-30 10:00 17.4 µg/m3 1.02 µg/m3 49.65 µg/m3 50.16 µg/m3 37.65 µg/m3 16.47 °C 92.56 % 1,008.62 mbar 4.27 m/s 339.82 Deg 5.33 µg/m3
2021-12-30 09:00 15.68 µg/m3 1.04 µg/m3 50.77 µg/m3 45.93 µg/m3 24.53 µg/m3 15.85 °C 95.93 % 1,007.87 mbar 3.23 m/s 332.78 Deg 3.47 µg/m3
2021-12-30 08:00 19.15 µg/m3 0.78 µg/m3 47.39 µg/m3 41.08 µg/m3 24.21 µg/m3 15.41 °C 97.41 % 1,007.45 mbar 2.95 m/s 330.07 Deg 2.74 µg/m3
2021-12-30 07:00 13.43 µg/m3 0.75 µg/m3 53.5 µg/m3 30.37 µg/m3 17.8 µg/m3 15.38 °C 96.36 % 1,006.79 mbar 2.81 m/s 327.23 Deg 1.63 µg/m3
2021-12-30 06:00 7.54 µg/m3 0.84 µg/m3 60.24 µg/m3 38.88 µg/m3 22.88 µg/m3 15.57 °C 94.9 % 1,006.53 mbar 3.55 m/s 329.4 Deg 0.75 µg/m3
2021-12-30 05:00 4.63 µg/m3 0.96 µg/m3 64.59 µg/m3 35 µg/m3 17.35 µg/m3 15.7 °C 94.07 % 1,006.55 mbar 3.79 m/s 333.52 Deg 0.42 µg/m3
2021-12-30 04:00 5.34 µg/m3 0.93 µg/m3 63.32 µg/m3 25.81 µg/m3 20.49 µg/m3 15.63 °C 94.33 % 1,006.55 mbar 4.02 m/s 333.7 Deg 0.33 µg/m3
2021-12-30 03:00 3.7 µg/m3 0.83 µg/m3 65.49 µg/m3 24.04 µg/m3 10.55 µg/m3 15.72 °C 94.09 % 1,006.73 mbar 4.2 m/s 337.78 Deg 0.28 µg/m3
2021-12-30 02:00 3.14 µg/m3 0.72 µg/m3 65.78 µg/m3 19.74 µg/m3 8.59 µg/m3 15.74 °C 94.05 % 1,006.64 mbar 4.98 m/s 338.43 Deg 0.25 µg/m3
2021-12-30 01:00 4.11 µg/m3 0.94 µg/m3 66.21 µg/m3 25.9 µg/m3 14.41 µg/m3 15.75 °C 93.02 % 1,006.59 mbar 3.61 m/s 334.87 Deg 0.33 µg/m3
2021-12-30 00:00 4.32 µg/m3 0.85 µg/m3 68.67 µg/m3 25.07 µg/m3 23.34 µg/m3 16.01 °C 90.75 % 1,006.68 mbar 4.48 m/s 329.33 Deg 0.34 µg/m3
2021-12-29 23:00 6.47 µg/m3 0.91 µg/m3 68.14 µg/m3 37.21 µg/m3 17.39 µg/m3 16.1 °C 89.96 % 1,006.77 mbar 4.05 m/s 342.18 Deg 0.42 µg/m3
2021-12-29 22:00 4.89 µg/m3 0.91 µg/m3 70.38 µg/m3 49.02 µg/m3 19.23 µg/m3 16.17 °C 89.78 % 1,006.78 mbar 4.26 m/s 336 Deg 0.57 µg/m3
2021-12-29 21:00 6.21 µg/m3 0.77 µg/m3 69.07 µg/m3 38.26 µg/m3 21.45 µg/m3 16.13 °C 90.55 % 1,006.54 mbar 4.29 m/s 323.42 Deg 0.8 µg/m3
2021-12-29 20:00 7.78 µg/m3 1.04 µg/m3 68.28 µg/m3 47.68 µg/m3 20.56 µg/m3 16.12 °C 90.3 % 1,006.33 mbar 4.61 m/s 318.58 Deg 1.05 µg/m3
2021-12-29 19:00 8.29 µg/m3 0.99 µg/m3 69.71 µg/m3 43.25 µg/m3 15.7 µg/m3 16.17 °C 88.45 % 1,006.10 mbar 4.81 m/s 319.75 Deg 1.45 µg/m3
2021-12-29 18:00 9.37 µg/m3 0.79 µg/m3 71.01 µg/m3 42.82 µg/m3 23.13 µg/m3 16.32 °C 87.76 % 1,006.30 mbar 5.12 m/s 316.65 Deg 1.49 µg/m3
2021-12-29 17:00 9.81 µg/m3 0.94 µg/m3 71.05 µg/m3 39.08 µg/m3 19.15 µg/m3 16.57 °C 87.49 % 1,005.92 mbar 4.73 m/s 324.32 Deg 1.74 µg/m3
2021-12-29 16:00 9.29 µg/m3 0.84 µg/m3 72.42 µg/m3 31.07 µg/m3 15.36 µg/m3 17.05 °C 83.53 % 1,005.77 mbar 5.64 m/s 324.13 Deg 1.57 µg/m3
2021-12-29 15:00 10.94 µg/m3 0.81 µg/m3 69.63 µg/m3 30.9 µg/m3 14.23 µg/m3 17.05 °C 82.48 % 1,005.72 mbar 5.06 m/s 321.38 Deg 1.94 µg/m3
2021-12-29 14:00 10.88 µg/m3 0.82 µg/m3 67.6 µg/m3 47.68 µg/m3 12.69 µg/m3 16.98 °C 84.36 % 1,006.09 mbar 4.45 m/s 318.72 Deg 2.42 µg/m3
2021-12-29 13:00 9.55 µg/m3 0.89 µg/m3 67.37 µg/m3 35.44 µg/m3 15.56 µg/m3 17.21 °C 83.42 % 1,006.22 mbar 4.89 m/s 317.48 Deg 3.11 µg/m3
2021-12-29 12:00 10.35 µg/m3 1.05 µg/m3 64.09 µg/m3 39.77 µg/m3 11.8 µg/m3 16.79 °C 84.38 % 1,006.90 mbar 5.52 m/s 319.08 Deg 2.98 µg/m3
2021-12-29 11:00 12.72 µg/m3 1.01 µg/m3 60.2 µg/m3 35.56 µg/m3 13.73 µg/m3 16.48 °C 85.26 % 1,007.72 mbar 4.91 m/s 314.45 Deg 3.71 µg/m3
2021-12-29 10:00 12.68 µg/m3 0.78 µg/m3 60.2 µg/m3 26.18 µg/m3 18.13 µg/m3 16.41 °C 86.63 % 1,007.81 mbar 4.39 m/s 319.77 Deg 4.33 µg/m3
2021-12-29 09:00 12.14 µg/m3 0.79 µg/m3 60.39 µg/m3 35.44 µg/m3 23.07 µg/m3 16.05 °C 90.51 % 1,007.30 mbar 3.77 m/s 312.48 Deg 2.61 µg/m3
2021-12-29 08:00 13.03 µg/m3 0.92 µg/m3 58.77 µg/m3 43.76 µg/m3 12.9 µg/m3 15.69 °C 92.03 % 1,007.02 mbar 4.01 m/s 316.7 Deg 2.23 µg/m3
2021-12-29 07:00 8.65 µg/m3 0.89 µg/m3 64.2 µg/m3 41.51 µg/m3 12.83 µg/m3 15.52 °C 90.85 % 1,006.72 mbar 3.92 m/s 316.85 Deg 1.26 µg/m3
2021-12-29 06:00 5.19 µg/m3 1 µg/m3 66.06 µg/m3 27.81 µg/m3 22.71 µg/m3 15.42 °C 90.89 % 1,006.70 mbar 3.57 m/s 324.4 Deg 0.63 µg/m3
2021-12-29 05:00 8.55 µg/m3 0.88 µg/m3 59.79 µg/m3 21.82 µg/m3 24.47 µg/m3 15.33 °C 90.43 % 1,006.89 mbar 2.74 m/s 325.55 Deg 0.5 µg/m3
2021-12-29 04:00 4.93 µg/m3 1.33 µg/m3 66.42 µg/m3 22.75 µg/m3 18.4 µg/m3 15.43 °C 89.52 % 1,006.89 mbar 3.52 m/s 331 Deg 0.32 µg/m3
2021-12-29 03:00 5.22 µg/m3 1.04 µg/m3 66.06 µg/m3 21.26 µg/m3 18.44 µg/m3 15.35 °C 89.04 % 1,007.15 mbar 3.69 m/s 330.28 Deg 0.29 µg/m3
2021-12-29 02:00 3.76 µg/m3 0.83 µg/m3 70.23 µg/m3 23.21 µg/m3 31.08 µg/m3 15.33 °C 89.99 % 1,006.98 mbar 3.22 m/s 327.22 Deg 0.28 µg/m3
2021-12-29 01:00 3.68 µg/m3 0.87 µg/m3 71.6 µg/m3 31.19 µg/m3 23.67 µg/m3 15.23 °C 89.03 % 1,006.98 mbar 3.3 m/s 322.3 Deg 0.35 µg/m3
2021-12-29 00:00 4.08 µg/m3 0.95 µg/m3 69.71 µg/m3 36.14 µg/m3 20.63 µg/m3 15.27 °C 93.24 % 1,007.34 mbar 2.88 m/s 319.35 Deg 0.44 µg/m3
2021-12-28 23:00 3.54 µg/m3 0.93 µg/m3 71.78 µg/m3 40.03 µg/m3 13.17 µg/m3 15.39 °C 92.68 % 1,007.31 mbar 3 m/s 320.33 Deg 0.43 µg/m3
2021-12-28 22:00 4.08 µg/m3 0.99 µg/m3 72.15 µg/m3 45 µg/m3 17.54 µg/m3 15.39 °C 91.15 % 1,007.25 mbar 3.45 m/s 315.09 Deg 0.48 µg/m3
2021-12-28 21:00 6.07 µg/m3 1.04 µg/m3 70.45 µg/m3 44.78 µg/m3 32.08 µg/m3 15.49 °C 90.16 % 1,007.28 mbar 3.57 m/s 318.85 Deg 0.82 µg/m3
2021-12-28 20:00 9.58 µg/m3 0.83 µg/m3 66.51 µg/m3 35.38 µg/m3 26.32 µg/m3 15.66 °C 90.6 % 1,006.79 mbar 4.21 m/s 313.48 Deg 1.05 µg/m3
2021-12-28 19:00 10.59 µg/m3 0.79 µg/m3 66.03 µg/m3 34.2 µg/m3 13.77 µg/m3 15.72 °C 89.15 % 1,006.45 mbar 3.83 m/s 322.67 Deg 1.33 µg/m3
2021-12-28 18:00 12.55 µg/m3 0.77 µg/m3 64.67 µg/m3 35.21 µg/m3 6.92 µg/m3 15.82 °C 88.37 % 1,006.05 mbar 4.97 m/s 315.15 Deg 2.06 µg/m3
2021-12-28 17:00 10.8 µg/m3 0.79 µg/m3 66.93 µg/m3 27.37 µg/m3 5.26 µg/m3 16.21 °C 86.42 % 1,005.85 mbar 3.85 m/s 318.07 Deg 2.32 µg/m3
2021-12-28 16:00 7.87 µg/m3 0.91 µg/m3 69.71 µg/m3 28.61 µg/m3 5.43 µg/m3 16.83 °C 81.93 % 1,005.38 mbar 5.19 m/s 308.22 Deg 1.92 µg/m3
2021-12-28 15:00 6.71 µg/m3 0.66 µg/m3 72 µg/m3 28.82 µg/m3 7.1 µg/m3 17.21 °C 76.39 % 1,004.77 mbar 5.45 m/s 306.55 Deg 1.95 µg/m3
2021-12-28 14:00 8.04 µg/m3 0.97 µg/m3 72.3 µg/m3 27.39 µg/m3 8.11 µg/m3 17.33 °C 74.05 % 1,004.93 mbar 4.76 m/s 312.12 Deg 2.43 µg/m3
2021-12-28 13:00 9.1 µg/m3 1.01 µg/m3 69.28 µg/m3 24.44 µg/m3 12.85 µg/m3 17.24 °C 75.38 % 1,005.43 mbar 5.8 m/s 312.52 Deg 3.35 µg/m3
2021-12-28 12:00 10.59 µg/m3 1.14 µg/m3 62.14 µg/m3 30.08 µg/m3 17.13 µg/m3 17.1 °C 77.66 % 1,005.97 mbar 4.6 m/s 319.12 Deg 5.47 µg/m3
2021-12-28 11:00 11.53 µg/m3 0.79 µg/m3 59.33 µg/m3 39.98 µg/m3 25.62 µg/m3 16.89 °C 81.11 % 1,006.58 mbar 4.53 m/s 315.82 Deg 3.83 µg/m3
2021-12-28 10:00 0.91 µg/m3 0 µg/m3 290.74 µg/m3 35.7 µg/m3 27.69 µg/m3 16.83 °C 81.9 % 1,006.59 mbar 4.63 m/s 312.67 Deg 0.29 µg/m3
2021-12-28 09:00 11.24 µg/m3 1.42 µg/m3 50.46 µg/m3 32.87 µg/m3 18.99 µg/m3 16.19 °C 84.92 % 1,006.18 mbar 4.12 m/s 309.3 Deg 3.01 µg/m3
2021-12-28 08:00 12.41 µg/m3 0.78 µg/m3 48.24 µg/m3 30.29 µg/m3 14.81 µg/m3 15.68 °C 88.58 % 1,005.53 mbar 4.67 m/s 310.08 Deg 2.51 µg/m3
2021-12-28 07:00 11.28 µg/m3 0.72 µg/m3 48.65 µg/m3 21.1 µg/m3 12.11 µg/m3 15.8 °C 87.4 % 1,005.33 mbar 3.83 m/s 311.72 Deg 1.85 µg/m3
2021-12-28 06:00 6.09 µg/m3 0.88 µg/m3 51.45 µg/m3 23.51 µg/m3 11.8 µg/m3 16.1 °C 86.6 % 1,005.06 mbar 3.91 m/s 295.42 Deg 0.82 µg/m3
2021-12-28 05:00 4.33 µg/m3 0.77 µg/m3 57.42 µg/m3 22.37 µg/m3 9 µg/m3 16.32 °C 86.74 % 1,004.99 mbar 4.04 m/s 286.07 Deg 0.53 µg/m3
2021-12-28 04:00 3.24 µg/m3 1.01 µg/m3 66.8 µg/m3 14.26 µg/m3 12.2 µg/m3 16.08 °C 88.5 % 1,005.34 mbar 3.86 m/s 276.55 Deg 0.29 µg/m3
2021-12-28 03:00 2.52 µg/m3 0.82 µg/m3 66.84 µg/m3 15.78 µg/m3 22.17 µg/m3 15.75 °C 95.36 % 1,005.21 mbar 3.64 m/s 254.95 Deg 0.22 µg/m3
2021-12-28 02:00 2.88 µg/m3 1.02 µg/m3 65.47 µg/m3 16.19 µg/m3 10.76 µg/m3 15.72 °C 98.25 % 1,005.90 mbar 3.88 m/s 242.93 Deg 0.3 µg/m3
2021-12-28 01:00 3.2 µg/m3 0.95 µg/m3 67.39 µg/m3 18.98 µg/m3 6.34 µg/m3 15.58 °C 97.16 % 1,006.76 mbar 3.53 m/s 261.98 Deg 0.28 µg/m3
2021-12-28 00:00 3.56 µg/m3 0.9 µg/m3 68.72 µg/m3 27.18 µg/m3 8.24 µg/m3 15.87 °C 95.32 % 1,007.37 mbar 3.18 m/s 271.58 Deg 0.29 µg/m3
2021-12-27 23:00 4.43 µg/m3 0.86 µg/m3 68.37 µg/m3 28.53 µg/m3 9.66 µg/m3 15.8 °C 97.57 % 1,007.69 mbar 3.29 m/s 271.17 Deg 0.36 µg/m3
2021-12-27 22:00 5.77 µg/m3 0.86 µg/m3 65.29 µg/m3 36.18 µg/m3 12.12 µg/m3 15.7 °C 97.17 % 1,007.72 mbar 2.69 m/s 266.25 Deg 0.43 µg/m3
2021-12-27 21:00 11.55 µg/m3 1 µg/m3 59.58 µg/m3 39.24 µg/m3 17.08 µg/m3 15.62 °C 95.29 % 1,007.84 mbar 2.4 m/s 262.07 Deg 0.54 µg/m3
2021-12-27 20:00 16.23 µg/m3 0.8 µg/m3 54.06 µg/m3 31.07 µg/m3 15.63 µg/m3 15.5 °C 91.68 % 1,007.88 mbar 2.08 m/s 282.12 Deg 1.15 µg/m3
2021-12-27 19:00 20.62 µg/m3 0.69 µg/m3 51.04 µg/m3 25.21 µg/m3 13.72 µg/m3 15.55 °C 89.2 % 1,007.69 mbar 2 m/s 299.45 Deg 1.6 µg/m3
2021-12-27 18:00 19.94 µg/m3 0.96 µg/m3 53.12 µg/m3 25.87 µg/m3 4.83 µg/m3 15.72 °C 88.78 % 1,007.64 mbar 2.32 m/s 306.7 Deg 2.33 µg/m3
2021-12-27 17:00 17.89 µg/m3 0.98 µg/m3 56.79 µg/m3 24.59 µg/m3 3.45 µg/m3 16.17 °C 87.1 % 1,007.29 mbar 2.46 m/s 313.24 Deg 2.89 µg/m3
2021-12-27 16:00 10.82 µg/m3 1.05 µg/m3 64.51 µg/m3 23.1 µg/m3 5.31 µg/m3 16.92 °C 81.68 % 1,007.08 mbar 3.03 m/s 314.63 Deg 2.01 µg/m3
2021-12-27 15:00 13.41 µg/m3 1 µg/m3 60.39 µg/m3 19.56 µg/m3 5.49 µg/m3 17.16 °C 79.44 % 1,006.80 mbar 2.74 m/s 302.3 Deg 2.8 µg/m3
2021-12-27 14:00 13.23 µg/m3 0.84 µg/m3 61.62 µg/m3 21.76 µg/m3 6.35 µg/m3 17.46 °C 77.21 % 1,006.86 mbar 2.55 m/s 314.97 Deg 3.15 µg/m3
2021-12-27 13:00 15.44 µg/m3 0.94 µg/m3 55.87 µg/m3 30.46 µg/m3 8.94 µg/m3 17.25 °C 78.83 % 1,007.19 mbar 2.92 m/s 347.13 Deg 3.39 µg/m3
2021-12-27 12:00 16.99 µg/m3 0.9 µg/m3 52.62 µg/m3 25.97 µg/m3 12.95 µg/m3 17.82 °C 76.31 % 1,007.48 mbar 2.42 m/s 267.9 Deg 5.19 µg/m3
2021-12-27 11:00 17.19 µg/m3 0.83 µg/m3 50.13 µg/m3 36.81 µg/m3 22.67 µg/m3 17.93 °C 73.16 % 1,007.71 mbar 2.35 m/s 342.08 Deg 6 µg/m3
2021-12-27 10:00 29.8 µg/m3 0.82 µg/m3 35.31 µg/m3 48.97 µg/m3 41.87 µg/m3 17.05 °C 76.75 % 1,007.40 mbar 2.03 m/s 329.73 Deg 10.97 µg/m3
2021-12-27 09:00 43.94 µg/m3 1.11 µg/m3 20.25 µg/m3 59.56 µg/m3 19.64 µg/m3 15.38 °C 92.65 % 1,006.98 mbar 1.69 m/s 327.98 Deg 19.2 µg/m3
2021-12-27 08:00 53.8 µg/m3 0.99 µg/m3 7.85 µg/m3 49.73 µg/m3 14.32 µg/m3 14.64 °C 93.95 % 1,006.74 mbar 1.24 m/s 315.33 Deg 17.52 µg/m3
2021-12-27 07:00 49.34 µg/m3 1.06 µg/m3 12.1 µg/m3 27.35 µg/m3 21.1 µg/m3 15.23 °C 92.28 % 1,006.26 mbar 1.39 m/s 311.05 Deg 11.15 µg/m3
2021-12-27 06:00 24.55 µg/m3 0.95 µg/m3 39.79 µg/m3 26.87 µg/m3 12.89 µg/m3 16.18 °C 88.04 % 1,005.52 mbar 0.91 m/s 289.48 Deg 2.5 µg/m3
2021-12-27 05:00 5.96 µg/m3 0.97 µg/m3 61.94 µg/m3 36.2 µg/m3 10.51 µg/m3 16.25 °C 88.46 % 1,005.52 mbar 1.36 m/s 283.88 Deg 0.33 µg/m3
2021-12-27 04:00 4.37 µg/m3 0.98 µg/m3 59 µg/m3 25.54 µg/m3 13.88 µg/m3 15.59 °C 94.73 % 1,005.57 mbar 1.65 m/s 246.35 Deg 0.33 µg/m3
2021-12-27 03:00 2.55 µg/m3 0.48 µg/m3 61.49 µg/m3 24.58 µg/m3 15.46 µg/m3 15.75 °C 95.68 % 1,006.12 mbar 2 m/s 229.03 Deg 0.28 µg/m3
2021-12-27 02:00 2.14 µg/m3 0.69 µg/m3 64.05 µg/m3 23.73 µg/m3 9.93 µg/m3 16.16 °C 95.53 % 1,006.39 mbar 2.62 m/s 212.37 Deg 0.25 µg/m3
2021-12-27 01:00 2.66 µg/m3 0.7 µg/m3 63.61 µg/m3 33.5 µg/m3 7.9 µg/m3 16.17 °C 96.81 % 1,007.02 mbar 2.87 m/s 224.57 Deg 0.3 µg/m3
2021-12-27 00:00 2.95 µg/m3 0.78 µg/m3 63.96 µg/m3 38.25 µg/m3 9.74 µg/m3 16.15 °C 97.39 % 1,007.37 mbar 3.67 m/s 216.1 Deg 0.28 µg/m3
2021-12-26 23:00 1.76 µg/m3 0.69 µg/m3 66.8 µg/m3 26.08 µg/m3 13.51 µg/m3 16.23 °C 93.35 % 1,007.51 mbar 3.97 m/s 215.28 Deg 0.25 µg/m3
2021-12-26 22:00 1.91 µg/m3 0.85 µg/m3 66.71 µg/m3 25.3 µg/m3 14.53 µg/m3 16.22 °C 90.11 % 1,007.38 mbar 4.42 m/s 223.85 Deg 0.27 µg/m3
2021-12-26 21:00 2.06 µg/m3 0.82 µg/m3 62.64 µg/m3 37.7 µg/m3 22.14 µg/m3 16.05 °C 93.17 % 1,007.56 mbar 3.15 m/s 203.15 Deg 0.27 µg/m3
2021-12-26 20:00 3.85 µg/m3 0.85 µg/m3 58.27 µg/m3 33.87 µg/m3 25.64 µg/m3 16.05 °C 93.49 % 1,007.77 mbar 1.71 m/s 186.58 Deg 0.35 µg/m3
2021-12-26 19:00 6.21 µg/m3 0.92 µg/m3 55.65 µg/m3 31.24 µg/m3 16.03 µg/m3 16.26 °C 93.44 % 1,007.49 mbar 1.88 m/s 184.78 Deg 0.39 µg/m3
2021-12-26 18:00 5.18 µg/m3 0.53 µg/m3 59.6 µg/m3 26.56 µg/m3 5.36 µg/m3 16.44 °C 89.7 % 1,007.12 mbar 1.85 m/s 189.92 Deg 0.44 µg/m3
2021-12-26 17:00 3.94 µg/m3 0.86 µg/m3 63.43 µg/m3 35.47 µg/m3 3.74 µg/m3 16.88 °C 85.57 % 1,006.70 mbar 3.02 m/s 220.85 Deg 0.51 µg/m3
2021-12-26 16:00 6.52 µg/m3 0.94 µg/m3 63.59 µg/m3 36.81 µg/m3 5.76 µg/m3 17.76 °C 78.7 % 1,006.71 mbar 2.51 m/s 236.95 Deg 1.11 µg/m3
2021-12-26 15:00 5.32 µg/m3 0.96 µg/m3 67.94 µg/m3 31.29 µg/m3 7.91 µg/m3 18.47 °C 75.41 % 1,006.92 mbar 3.4 m/s 239.02 Deg 1.21 µg/m3
2021-12-26 14:00 5.92 µg/m3 0.84 µg/m3 69.67 µg/m3 28.4 µg/m3 12.34 µg/m3 18.71 °C 72.73 % 1,007.10 mbar 3.85 m/s 232.05 Deg 1.32 µg/m3
2021-12-26 13:00 10.1 µg/m3 0.99 µg/m3 61.94 µg/m3 30.75 µg/m3 10.25 µg/m3 18.83 °C 71.48 % 1,007.55 mbar 4.32 m/s 224.27 Deg 2.38 µg/m3
2021-12-26 12:00 10.26 µg/m3 0.89 µg/m3 58.18 µg/m3 51.48 µg/m3 13.23 µg/m3 18.82 °C 71.77 % 1,008.25 mbar 3.65 m/s 223.28 Deg 2.63 µg/m3
2021-12-26 11:00 5.73 µg/m3 1 µg/m3 58.42 µg/m3 56.54 µg/m3 19.32 µg/m3 18.65 °C 72.29 % 1,008.95 mbar 2.65 m/s 217.5 Deg 1.39 µg/m3
2021-12-26 10:00 9.91 µg/m3 0.96 µg/m3 50.82 µg/m3 40.5 µg/m3 30.33 µg/m3 17.8 °C 77.04 % 1,009.20 mbar 1.88 m/s 227.17 Deg 2.2 µg/m3
2021-12-26 09:00 7.26 µg/m3 1.05 µg/m3 51.38 µg/m3 47.51 µg/m3 20.23 µg/m3 16.96 °C 82.36 % 1,008.91 mbar 1.37 m/s 203.3 Deg 1.11 µg/m3
2021-12-26 08:00 13.82 µg/m3 0.69 µg/m3 46.33 µg/m3 44.31 µg/m3 15.34 µg/m3 15.91 °C 90.06 % 1,008.67 mbar 1.5 m/s 218.6 Deg 1.74 µg/m3
2021-12-26 07:00 7.36 µg/m3 1 µg/m3 51.94 µg/m3 40.67 µg/m3 23.06 µg/m3 15.86 °C 89.55 % 1,008.47 mbar 1.8 m/s 230.57 Deg 0.66 µg/m3
2021-12-26 06:00 5.9 µg/m3 0.78 µg/m3 57.6 µg/m3 28.34 µg/m3 15.15 µg/m3 16.46 °C 84.76 % 1,008.30 mbar 1.95 m/s 255.35 Deg 0.33 µg/m3
2021-12-26 05:00 8.72 µg/m3 0.93 µg/m3 53.55 µg/m3 37.5 µg/m3 10.11 µg/m3 16.67 °C 83.94 % 1,007.85 mbar 2.79 m/s 241.68 Deg 0.34 µg/m3
2021-12-26 04:00 3.29 µg/m3 0.86 µg/m3 59.68 µg/m3 27.63 µg/m3 14.05 µg/m3 16.44 °C 87.15 % 1,007.91 mbar 2.82 m/s 230.05 Deg 0.32 µg/m3
2021-12-26 03:00 1.29 µg/m3 0.67 µg/m3 61.25 µg/m3 32.11 µg/m3 18.45 µg/m3 16.45 °C 88.16 % 1,008.24 mbar 2.98 m/s 231.62 Deg 0.25 µg/m3
2021-12-26 02:00 1.33 µg/m3 0.63 µg/m3 61.85 µg/m3 26.17 µg/m3 27.42 µg/m3 16.35 °C 87.72 % 1,008.30 mbar 3.17 m/s 229.05 Deg 0.27 µg/m3
2021-12-26 01:00 1.51 µg/m3 0.68 µg/m3 64.15 µg/m3 31.58 µg/m3 16.62 µg/m3 16.18 °C 88.78 % 1,008.51 mbar 3.62 m/s 223.62 Deg 0.26 µg/m3
2021-12-26 00:00 1.73 µg/m3 0.74 µg/m3 62.9 µg/m3 51.98 µg/m3 16.59 µg/m3 15.84 °C 91.35 % 1,008.85 mbar 3.37 m/s 221.17 Deg 0.27 µg/m3
2021-12-25 23:00 1.85 µg/m3 0.63 µg/m3 64.33 µg/m3 44.73 µg/m3 14.95 µg/m3 15.9 °C 91.65 % 1,009.02 mbar 4.09 m/s 219.75 Deg 0.25 µg/m3
2021-12-25 22:00 2.02 µg/m3 0.94 µg/m3 65.08 µg/m3 34.72 µg/m3 21.25 µg/m3 15.96 °C 91.6 % 1,009.36 mbar 3.95 m/s 217.15 Deg 0.26 µg/m3
2021-12-25 21:00 2.24 µg/m3 0.95 µg/m3 64.36 µg/m3 35.45 µg/m3 15.16 µg/m3 16 °C 90.33 % 1,009.46 mbar 4.09 m/s 216.8 Deg 0.27 µg/m3
2021-12-25 20:00 3.13 µg/m3 0.72 µg/m3 62.2 µg/m3 42.93 µg/m3 19.41 µg/m3 16.07 °C 88.94 % 1,009.38 mbar 4.04 m/s 217.75 Deg 0.3 µg/m3
2021-12-25 19:00 5.07 µg/m3 0.82 µg/m3 60.74 µg/m3 42.09 µg/m3 28.11 µg/m3 16.19 °C 87.8 % 1,009.53 mbar 2.59 m/s 206.17 Deg 0.33 µg/m3
2021-12-25 18:00 4.19 µg/m3 0.9 µg/m3 62 µg/m3 39.08 µg/m3 18.37 µg/m3 16.34 °C 88.98 % 1,009.45 mbar 3.17 m/s 212.33 Deg 0.31 µg/m3
2021-12-25 17:00 3.98 µg/m3 0.81 µg/m3 68.19 µg/m3 37.6 µg/m3 7.64 µg/m3 16.77 °C 87.28 % 1,009.37 mbar 3.92 m/s 209.82 Deg 0.4 µg/m3
2021-12-25 16:00 4.98 µg/m3 0.8 µg/m3 74.66 µg/m3 25.64 µg/m3 4.34 µg/m3 17.32 °C 86.04 % 1,009.46 mbar 3.61 m/s 215.08 Deg 0.5 µg/m3
2021-12-25 15:00 3.99 µg/m3 0.84 µg/m3 77.39 µg/m3 20.68 µg/m3 5.45 µg/m3 17.87 °C 82.98 % 1,009.57 mbar 4.89 m/s 217.08 Deg 0.58 µg/m3
2021-12-25 14:00 3.35 µg/m3 0.86 µg/m3 79.15 µg/m3 18.82 µg/m3 5.68 µg/m3 18.07 °C 81.89 % 1,009.86 mbar 4.92 m/s 218.47 Deg 0.55 µg/m3
2021-12-25 13:00 5.62 µg/m3 0.83 µg/m3 75.03 µg/m3 20.67 µg/m3 7.29 µg/m3 17.93 °C 84.57 % 1,010.53 mbar 4.87 m/s 218.6 Deg 0.97 µg/m3
2021-12-25 12:00 6.05 µg/m3 0.85 µg/m3 73.72 µg/m3 28.64 µg/m3 9.91 µg/m3 17.85 °C 85.57 % 1,011.28 mbar 4.97 m/s 205.82 Deg 1.01 µg/m3
2021-12-25 11:00 9.58 µg/m3 1.24 µg/m3 66.46 µg/m3 28.86 µg/m3 14.42 µg/m3 17.64 °C 87.69 % 1,011.98 mbar 5.02 m/s 199.07 Deg 1.64 µg/m3
2021-12-25 10:00 6.46 µg/m3 1.29 µg/m3 69.03 µg/m3 43.13 µg/m3 22.97 µg/m3 17.25 °C 90.08 % 1,012.56 mbar 4.47 m/s 200.14 Deg 0.91 µg/m3
2021-12-25 09:00 4.15 µg/m3 0.89 µg/m3 70.55 µg/m3 40.46 µg/m3 20.54 µg/m3 16.58 °C 92.25 % 1,012.87 mbar 2.59 m/s 201.48 Deg 0.51 µg/m3
2021-12-25 08:00 4.82 µg/m3 0.89 µg/m3 70.72 µg/m3 26.97 µg/m3 15.85 µg/m3 15.83 °C 93.48 % 1,012.82 mbar 2.2 m/s 195.25 Deg 0.39 µg/m3
2021-12-25 07:00 3.86 µg/m3 0.98 µg/m3 74.95 µg/m3 14.81 µg/m3 9.08 µg/m3 15.6 °C 93.6 % 1,012.56 mbar 2.59 m/s 213.25 Deg 0.27 µg/m3
2021-12-25 06:00 2.96 µg/m3 0.89 µg/m3 73.74 µg/m3 10.08 µg/m3 12.55 µg/m3 15.54 °C 92.3 % 1,012.40 mbar 2.87 m/s 218.8 Deg 0.25 µg/m3
2021-12-25 05:00 1.88 µg/m3 0.85 µg/m3 73.85 µg/m3 12.04 µg/m3 10.38 µg/m3 15.48 °C 92.28 % 1,012.38 mbar 3.26 m/s 214.4 Deg 0.22 µg/m3
2021-12-25 04:00 1.39 µg/m3 0.9 µg/m3 74.47 µg/m3 16.87 µg/m3 13.43 µg/m3 15.31 °C 91.17 % 1,012.69 mbar 3.42 m/s 207.23 Deg 0.21 µg/m3
2021-12-25 03:00 1.57 µg/m3 0.91 µg/m3 73.4 µg/m3 12.38 µg/m3 9.77 µg/m3 15.08 °C 89.86 % 1,012.93 mbar 3.09 m/s 205.42 Deg 0.21 µg/m3
2021-12-25 02:00 2.57 µg/m3 0.98 µg/m3 70.59 µg/m3 9.52 µg/m3 9.22 µg/m3 14.96 °C 90.24 % 1,013.21 mbar 2.67 m/s 199.8 Deg 0.24 µg/m3
2021-12-25 01:00 2.61 µg/m3 0.89 µg/m3 67.73 µg/m3 9.42 µg/m3 6.2 µg/m3 14.81 °C 88.44 % 1,013.76 mbar 2.29 m/s 198.35 Deg 0.21 µg/m3
2021-12-25 00:00 3.99 µg/m3 1.28 µg/m3 64.61 µg/m3 11.02 µg/m3 7.79 µg/m3 14.28 °C 89.72 % 1,014.25 mbar 2.48 m/s 208.55 Deg 0.26 µg/m3
2021-12-24 23:00 5.58 µg/m3 1.05 µg/m3 61.69 µg/m3 13.19 µg/m3 4.78 µg/m3 13.92 °C 92.31 % 1,014.50 mbar 2.18 m/s 210.65 Deg 0.33 µg/m3
2021-12-24 22:00 19.41 µg/m3 1.01 µg/m3 55.14 µg/m3 19.77 µg/m3 6.09 µg/m3 14.42 °C 88.82 % 1,014.57 mbar 1.92 m/s 193.5 Deg 0.43 µg/m3
2021-12-24 21:00 17.35 µg/m3 1.07 µg/m3 55.71 µg/m3 19.88 µg/m3 5.64 µg/m3 14.13 °C 89.16 % 1,014.74 mbar 2.06 m/s 196.13 Deg 0.41 µg/m3
2021-12-24 20:00 23.72 µg/m3 1.15 µg/m3 53.51 µg/m3 17.74 µg/m3 8.15 µg/m3 14.27 °C 89.29 % 1,015.07 mbar 1.5 m/s 200.75 Deg 1.11 µg/m3
2021-12-24 19:00 17.35 µg/m3 1.06 µg/m3 53.89 µg/m3 12.19 µg/m3 7.68 µg/m3 14.15 °C 87.97 % 1,015.00 mbar 1.52 m/s 186 Deg 0.45 µg/m3
2021-12-24 18:00 18.55 µg/m3 0.88 µg/m3 54.97 µg/m3 10.18 µg/m3 6.35 µg/m3 14.51 °C 84.75 % 1,014.92 mbar 0.82 m/s 186.05 Deg 0.41 µg/m3
2021-12-24 17:00 9.08 µg/m3 1.11 µg/m3 66.74 µg/m3 10.48 µg/m3 8.04 µg/m3 15.22 °C 80.04 % 1,014.85 mbar 1.36 m/s 210.9 Deg 0.52 µg/m3
2021-12-24 16:00 4.51 µg/m3 1.1 µg/m3 76.27 µg/m3 10.64 µg/m3 5.93 µg/m3 15.9 °C 75.24 % 1,014.69 mbar 1.88 m/s 228.25 Deg 0.68 µg/m3
2021-12-24 15:00 5.77 µg/m3 1.22 µg/m3 74.46 µg/m3 11.61 µg/m3 6.19 µg/m3 16.03 °C 73.27 % 1,014.91 mbar 2.26 m/s 235.37 Deg 1.06 µg/m3
2021-12-24 14:00 3.7 µg/m3 1.36 µg/m3 76.14 µg/m3 12.42 µg/m3 7.11 µg/m3 16.34 °C 70.69 % 1,015.24 mbar 2.73 m/s 226.67 Deg 0.91 µg/m3
2021-12-24 13:00 2.89 µg/m3 1.08 µg/m3 77.5 µg/m3 13.5 µg/m3 6.84 µg/m3 16.09 °C 74.43 % 1,015.72 mbar 2.71 m/s 211.83 Deg 0.67 µg/m3
2021-12-24 12:00 4.97 µg/m3 1.3 µg/m3 76.33 µg/m3 18.59 µg/m3 6.99 µg/m3 15.85 °C 75.77 % 1,016.59 mbar 2.46 m/s 200.18 Deg 1.06 µg/m3
2021-12-24 11:00 5.79 µg/m3 N/A 75.49 µg/m3 32.29 µg/m3 8.85 µg/m3 15.45 °C 78.23 % 1,017.32 mbar 2.65 m/s 162.43 Deg 1.17 µg/m3
2021-12-24 10:00 16.18 µg/m3 N/A 62.55 µg/m3 38.02 µg/m3 13.69 µg/m3 15.33 °C 80.2 % 1,017.57 mbar 1.68 m/s 161.12 Deg 4.99 µg/m3
2021-12-24 09:00 73.98 µg/m3 N/A 9.35 µg/m3 24.89 µg/m3 11.41 µg/m3 14.55 °C 82.24 % 1,017.34 mbar 0.5 m/s 245.91 Deg 82.58 µg/m3
2021-12-24 08:00 53.83 µg/m3 N/A 25.35 µg/m3 12.67 µg/m3 11.22 µg/m3 13.4 °C 85.76 % 1,017.21 mbar 0.89 m/s 139.72 Deg 22.09 µg/m3
2021-12-24 07:00 46.67 µg/m3 N/A 20.53 µg/m3 9.8 µg/m3 9.76 µg/m3 12.93 °C 87.68 % 1,016.96 mbar 0.68 m/s 111.85 Deg 14.33 µg/m3
2021-12-24 06:00 24 µg/m3 N/A 36.66 µg/m3 10.8 µg/m3 10.08 µg/m3 13.08 °C 86.91 % 1,016.78 mbar 0.53 m/s 114.01 Deg 3.07 µg/m3
2021-12-24 05:00 14.97 µg/m3 1.18 µg/m3 50.16 µg/m3 12.1 µg/m3 10.63 µg/m3 13.43 °C 85.59 % 1,016.70 mbar 0.81 m/s 224.67 Deg 2.27 µg/m3
2021-12-24 04:00 9.75 µg/m3 1.12 µg/m3 62.52 µg/m3 11.21 µg/m3 17.09 µg/m3 13.38 °C 85.83 % 1,016.76 mbar 0.88 m/s 135.83 Deg 0.52 µg/m3
2021-12-24 03:00 8.04 µg/m3 1.14 µg/m3 64.09 µg/m3 11.52 µg/m3 13.83 µg/m3 13.36 °C 86.51 % 1,016.80 mbar 1.05 m/s 115.37 Deg 0.24 µg/m3
2021-12-24 02:00 8.6 µg/m3 1.04 µg/m3 65.14 µg/m3 9.6 µg/m3 19.34 µg/m3 13.5 °C 86.48 % 1,016.83 mbar 0.98 m/s 116.95 Deg 0.27 µg/m3
2021-12-24 01:00 3.01 µg/m3 1.28 µg/m3 75.02 µg/m3 8.67 µg/m3 7.37 µg/m3 13.48 °C 85.93 % 1,016.85 mbar 1.27 m/s 69.82 Deg 0.22 µg/m3
2021-12-24 00:00 3.82 µg/m3 1.1 µg/m3 72.52 µg/m3 11.64 µg/m3 2.82 µg/m3 13.66 °C 86.45 % 1,017.07 mbar 1.36 m/s 286.63 Deg 0.22 µg/m3
2021-12-23 23:00 2.78 µg/m3 0.99 µg/m3 74.35 µg/m3 20.08 µg/m3 5.07 µg/m3 13.64 °C 84.02 % 1,017.11 mbar 1.7 m/s 218.93 Deg 0.21 µg/m3
2021-12-23 22:00 3.97 µg/m3 0.98 µg/m3 74.42 µg/m3 13.5 µg/m3 10.14 µg/m3 13.87 °C 84.28 % 1,017.00 mbar 2 m/s 246.63 Deg 0.21 µg/m3
2021-12-23 21:00 4.08 µg/m3 1.14 µg/m3 76.17 µg/m3 10.83 µg/m3 7.53 µg/m3 14.09 °C 82.44 % 1,016.95 mbar 2.38 m/s 188.05 Deg 0.23 µg/m3
2021-12-23 20:00 6.24 µg/m3 1.1 µg/m3 74.96 µg/m3 10.01 µg/m3 6.04 µg/m3 14.26 °C 83.51 % 1,016.61 mbar 2.18 m/s 318.43 Deg 0.39 µg/m3
2021-12-23 19:00 7.14 µg/m3 0.97 µg/m3 72.65 µg/m3 11.92 µg/m3 7.03 µg/m3 14.28 °C 82.13 % 1,016.18 mbar 1.94 m/s 97.15 Deg 0.33 µg/m3
2021-12-23 18:00 6.55 µg/m3 1.13 µg/m3 73.81 µg/m3 15.22 µg/m3 6.8 µg/m3 14.31 °C 82.99 % 1,015.77 mbar 2.32 m/s 272.98 Deg 0.29 µg/m3
2021-12-23 17:00 12.48 µg/m3 1.28 µg/m3 67.57 µg/m3 12.75 µg/m3 5.18 µg/m3 14.49 °C 84.17 % 1,015.57 mbar 2.48 m/s 218.98 Deg 0.85 µg/m3
2021-12-23 16:00 10.58 µg/m3 1.29 µg/m3 69.02 µg/m3 16.53 µg/m3 5.91 µg/m3 14.62 °C 84.17 % 1,015.61 mbar 2.91 m/s 115.95 Deg 1.16 µg/m3
2021-12-23 15:00 7.67 µg/m3 1.07 µg/m3 72.92 µg/m3 10.05 µg/m3 4.87 µg/m3 14.93 °C 78.9 % 1,015.43 mbar 2.43 m/s 330.82 Deg 0.89 µg/m3
2021-12-23 14:00 5.21 µg/m3 1.11 µg/m3 74.66 µg/m3 10.78 µg/m3 2.43 µg/m3 15.01 °C 77.69 % 1,015.30 mbar 2.38 m/s 292.87 Deg 0.63 µg/m3
2021-12-23 13:00 7.08 µg/m3 1.08 µg/m3 75.35 µg/m3 14.69 µg/m3 3.12 µg/m3 15.19 °C 75.91 % 1,015.60 mbar 2.39 m/s 234.87 Deg 1.03 µg/m3
2021-12-23 12:00 3.46 µg/m3 1.05 µg/m3 76.19 µg/m3 18.77 µg/m3 4 µg/m3 14.94 °C 78.84 % 1,015.91 mbar 3.44 m/s 169.65 Deg 0.46 µg/m3
2021-12-23 11:00 3 µg/m3 1.09 µg/m3 74.77 µg/m3 21.26 µg/m3 6.4 µg/m3 14.65 °C 82.41 % 1,016.51 mbar 3.26 m/s 131.3 Deg 0.43 µg/m3
2021-12-23 10:00 4.74 µg/m3 1.16 µg/m3 73.22 µg/m3 15.37 µg/m3 7.44 µg/m3 14.61 °C 82.28 % 1,016.36 mbar 2.92 m/s 264.63 Deg 0.45 µg/m3
2021-12-23 09:00 8.71 µg/m3 1.2 µg/m3 70.93 µg/m3 14.96 µg/m3 7.27 µg/m3 14.25 °C 82.72 % 1,015.85 mbar 2.62 m/s 172.57 Deg 0.88 µg/m3
2021-12-23 08:00 9.8 µg/m3 1.07 µg/m3 68.96 µg/m3 10.63 µg/m3 7.05 µg/m3 13.95 °C 83.7 % 1,015.57 mbar 2.85 m/s 98.03 Deg 1.01 µg/m3
2021-12-23 07:00 6.32 µg/m3 0.91 µg/m3 71.77 µg/m3 12.8 µg/m3 7.85 µg/m3 13.99 °C 84.92 % 1,015.40 mbar 2.74 m/s 113.77 Deg 0.57 µg/m3
2021-12-23 06:00 4.56 µg/m3 1.09 µg/m3 72.97 µg/m3 11 µg/m3 10.58 µg/m3 13.93 °C 85.32 % 1,015.24 mbar 2.7 m/s 263.53 Deg 0.63 µg/m3
2021-12-23 05:00 2.29 µg/m3 1.04 µg/m3 74.65 µg/m3 8.9 µg/m3 17.23 µg/m3 13.77 °C 84.21 % 1,015.11 mbar 2.55 m/s 108.03 Deg 0.23 µg/m3
2021-12-23 04:00 2.14 µg/m3 1.19 µg/m3 75.61 µg/m3 9.89 µg/m3 27.54 µg/m3 13.92 °C 83.53 % 1,015.20 mbar 2.7 m/s 253.67 Deg 0.21 µg/m3
2021-12-23 03:00 2.6 µg/m3 1.05 µg/m3 74.24 µg/m3 11.42 µg/m3 13.37 µg/m3 13.96 °C 80.81 % 1,015.33 mbar 2.35 m/s 29.18 Deg 0.18 µg/m3
2021-12-23 02:00 2.97 µg/m3 1.23 µg/m3 73.46 µg/m3 13.17 µg/m3 11.36 µg/m3 14.03 °C 81.59 % 1,015.45 mbar 2.04 m/s 84.65 Deg 0.23 µg/m3
2021-12-23 01:00 6.23 µg/m3 1.1 µg/m3 68.62 µg/m3 15.81 µg/m3 10.92 µg/m3 14.06 °C 81.03 % 1,015.48 mbar 1.85 m/s 187.98 Deg 0.25 µg/m3
2021-12-23 00:00 8.36 µg/m3 1.11 µg/m3 67.37 µg/m3 13.97 µg/m3 16.81 µg/m3 14.12 °C 78.73 % 1,015.58 mbar 1.65 m/s 245.93 Deg 0.45 µg/m3
2021-12-22 23:00 10.29 µg/m3 1.17 µg/m3 63.73 µg/m3 11.16 µg/m3 14.77 µg/m3 13.99 °C 77.62 % 1,015.72 mbar 1.67 m/s 207.38 Deg 0.29 µg/m3
2021-12-22 22:00 8.04 µg/m3 1.02 µg/m3 66.26 µg/m3 13.56 µg/m3 9.92 µg/m3 13.9 °C 79.12 % 1,015.58 mbar 1.51 m/s 230.98 Deg 0.26 µg/m3
2021-12-22 21:00 9.23 µg/m3 1.13 µg/m3 64.98 µg/m3 20.11 µg/m3 9.45 µg/m3 13.93 °C 79.88 % 1,015.65 mbar 1.57 m/s 244.78 Deg 0.28 µg/m3
2021-12-22 20:00 6.98 µg/m3 1.31 µg/m3 68.27 µg/m3 32.28 µg/m3 6.32 µg/m3 13.98 °C 80.25 % 1,015.63 mbar 1.52 m/s 153.67 Deg 0.26 µg/m3
2021-12-22 19:00 22.68 µg/m3 1.12 µg/m3 58.17 µg/m3 24.31 µg/m3 6.33 µg/m3 14.21 °C 78.99 % 1,015.31 mbar 1.26 m/s 109.77 Deg 0.81 µg/m3
2021-12-22 18:00 41.32 µg/m3 1.1 µg/m3 41.91 µg/m3 13.45 µg/m3 6.79 µg/m3 14.37 °C 76.45 % 1,015.20 mbar 0.95 m/s 25.42 Deg 4.79 µg/m3
2021-12-22 17:00 16.94 µg/m3 1.26 µg/m3 62.53 µg/m3 14.36 µg/m3 8.11 µg/m3 14.97 °C 72.55 % 1,015.13 mbar 0.85 m/s 299.46 Deg 1.37 µg/m3
2021-12-22 16:00 9.8 µg/m3 1.19 µg/m3 71.53 µg/m3 19.2 µg/m3 8.17 µg/m3 15.18 °C 72.45 % 1,014.85 mbar 1.17 m/s 236.56 Deg 1.09 µg/m3
2021-12-22 15:00 10.16 µg/m3 1.21 µg/m3 71.02 µg/m3 26.61 µg/m3 6.83 µg/m3 15.39 °C 71.93 % 1,014.70 mbar 1.14 m/s 224.73 Deg 1.19 µg/m3
2021-12-22 14:00 20.06 µg/m3 1.22 µg/m3 62.45 µg/m3 20.11 µg/m3 7.38 µg/m3 15.12 °C 69.73 % 1,014.73 mbar 1.08 m/s 181.13 Deg 2.41 µg/m3
2021-12-22 13:00 26.8 µg/m3 1.38 µg/m3 55.84 µg/m3 25.12 µg/m3 11.4 µg/m3 15.61 °C 67.06 % 1,014.93 mbar 1.38 m/s 173.9 Deg 5.98 µg/m3
2021-12-22 12:00 28.66 µg/m3 1.41 µg/m3 53.07 µg/m3 38.95 µg/m3 19.82 µg/m3 15.67 °C 67.42 % 1,015.66 mbar 1.31 m/s 333.61 Deg 8.69 µg/m3
2021-12-22 11:00 44.9 µg/m3 1.53 µg/m3 38.14 µg/m3 62.86 µg/m3 18.51 µg/m3 14.9 °C 70.35 % 1,016.64 mbar 1.21 m/s 299.35 Deg 10.62 µg/m3
2021-12-22 10:00 66.45 µg/m3 1.96 µg/m3 21.82 µg/m3 67.12 µg/m3 26.65 µg/m3 14.64 °C 73.03 % 1,016.59 mbar 1.22 m/s 313.11 Deg 52.13 µg/m3
2021-12-22 09:00 82.92 µg/m3 2.47 µg/m3 5.42 µg/m3 52.92 µg/m3 16.27 µg/m3 13.04 °C 77.76 % 1,016.30 mbar 1.11 m/s 315.22 Deg 94.76 µg/m3
2021-12-22 08:00 80.97 µg/m3 1.75 µg/m3 3.09 µg/m3 32.29 µg/m3 16.58 µg/m3 12.14 °C 80.57 % 1,016.30 mbar 1.17 m/s 308.83 Deg 61.57 µg/m3
2021-12-22 07:00 69.57 µg/m3 1.78 µg/m3 10.07 µg/m3 17.06 µg/m3 20.21 µg/m3 12.31 °C 81.99 % 1,016.17 mbar 1.38 m/s 284.93 Deg 37.58 µg/m3
2021-12-22 06:00 37.32 µg/m3 1.54 µg/m3 29.66 µg/m3 12.8 µg/m3 12.09 µg/m3 11.93 °C 87.31 % 1,015.80 mbar 1.32 m/s 293.18 Deg 6.72 µg/m3
2021-12-22 05:00 25.64 µg/m3 1.3 µg/m3 35.23 µg/m3 14.32 µg/m3 10.3 µg/m3 12.08 °C 87.92 % 1,015.61 mbar 1.09 m/s 305.98 Deg 1.33 µg/m3
2021-12-22 04:00 27.74 µg/m3 1.06 µg/m3 35.91 µg/m3 16.75 µg/m3 17.68 µg/m3 12.65 °C 84.8 % 1,015.79 mbar 1.12 m/s 329.87 Deg 0.97 µg/m3
2021-12-22 03:00 9.85 µg/m3 1.33 µg/m3 55.64 µg/m3 17.05 µg/m3 22.06 µg/m3 13 °C 80.9 % 1,016.11 mbar 1.33 m/s 318.57 Deg 0.42 µg/m3
2021-12-22 02:00 14.96 µg/m3 1.31 µg/m3 47.4 µg/m3 22.41 µg/m3 24.26 µg/m3 12.79 °C 82.91 % 1,016.11 mbar 1.45 m/s 310.25 Deg 0.58 µg/m3
2021-12-22 01:00 39.2 µg/m3 1.17 µg/m3 28.35 µg/m3 33.1 µg/m3 13.93 µg/m3 12.8 °C 83.24 % 1,016.37 mbar 1.13 m/s 281.17 Deg 4.34 µg/m3
2021-12-22 00:00 42.31 µg/m3 1.44 µg/m3 28.57 µg/m3 38.9 µg/m3 16.55 µg/m3 12.47 °C 84.22 % 1,016.55 mbar 1.2 m/s 315.78 Deg 4.23 µg/m3
2021-12-21 23:00 36.7 µg/m3 1.3 µg/m3 38.02 µg/m3 51.85 µg/m3 26.59 µg/m3 12.8 °C 80.38 % 1,016.58 mbar 1.42 m/s 309.13 Deg 3.82 µg/m3
2021-12-21 22:00 58.38 µg/m3 1.77 µg/m3 15.86 µg/m3 65.39 µg/m3 16.91 µg/m3 12.34 °C 82.44 % 1,016.55 mbar 1.57 m/s 306.22 Deg 11.97 µg/m3
2021-12-21 21:00 77.09 µg/m3 1.93 µg/m3 2.22 µg/m3 52.14 µg/m3 20.68 µg/m3 12.48 °C 81.59 % 1,016.49 mbar 1.4 m/s 302.63 Deg 34.01 µg/m3
2021-12-21 20:00 78.89 µg/m3 1.72 µg/m3 5.08 µg/m3 38.22 µg/m3 22.19 µg/m3 13.22 °C 78.44 % 1,016.26 mbar 1.39 m/s 334.77 Deg 20.69 µg/m3
2021-12-21 19:00 80.78 µg/m3 1.75 µg/m3 6 µg/m3 28.98 µg/m3 11.65 µg/m3 13.43 °C 76.84 % 1,016.17 mbar 1.14 m/s 282.68 Deg 16.29 µg/m3
2021-12-21 18:00 67.23 µg/m3 1.57 µg/m3 19.83 µg/m3 28.21 µg/m3 11.73 µg/m3 13.76 °C 74.39 % 1,015.79 mbar 0.97 m/s 328.58 Deg 15.08 µg/m3
2021-12-21 17:00 38.99 µg/m3 1.13 µg/m3 47.49 µg/m3 14.78 µg/m3 18.69 µg/m3 14.38 °C 70.96 % 1,015.49 mbar 1.73 m/s 347.82 Deg 6.33 µg/m3
2021-12-21 16:00 20.09 µg/m3 1.28 µg/m3 65.62 µg/m3 14.56 µg/m3 8.86 µg/m3 15.03 °C 67.68 % 1,015.19 mbar 2.38 m/s 347.92 Deg 4.16 µg/m3
2021-12-21 15:00 18.02 µg/m3 1.22 µg/m3 67.83 µg/m3 13.46 µg/m3 5.71 µg/m3 15.3 °C 66.51 % 1,014.91 mbar 2.8 m/s 349.98 Deg 5.2 µg/m3
2021-12-21 14:00 15.73 µg/m3 1.38 µg/m3 68.52 µg/m3 13.7 µg/m3 5.82 µg/m3 15.62 °C 63.73 % 1,014.96 mbar 2.83 m/s 352.87 Deg 4.47 µg/m3
2021-12-21 13:00 14.41 µg/m3 1.08 µg/m3 68.51 µg/m3 16.38 µg/m3 7.71 µg/m3 15.5 °C 64.36 % 1,015.35 mbar 3.02 m/s 351.17 Deg 5.73 µg/m3
2021-12-21 12:00 19.66 µg/m3 1.33 µg/m3 62.71 µg/m3 24.68 µg/m3 9.09 µg/m3 15.54 °C 66.75 % 1,015.93 mbar 2.77 m/s 345.68 Deg 8 µg/m3
2021-12-21 11:00 17.91 µg/m3 1.43 µg/m3 63.9 µg/m3 36.99 µg/m3 13.95 µg/m3 15.1 °C 72.94 % 1,016.10 mbar 2.71 m/s 267.5 Deg 6.66 µg/m3
2021-12-21 10:00 21.81 µg/m3 1.33 µg/m3 59.65 µg/m3 40.75 µg/m3 24.68 µg/m3 14.61 °C 74.31 % 1,016.05 mbar 2.98 m/s 262.48 Deg 6.07 µg/m3
2021-12-21 09:00 68.25 µg/m3 1.69 µg/m3 15.57 µg/m3 26.44 µg/m3 28.01 µg/m3 13.53 °C 81.66 % 1,015.49 mbar 1.78 m/s 334.3 Deg 30.66 µg/m3
2021-12-21 08:00 78.98 µg/m3 1.68 µg/m3 4.49 µg/m3 25.74 µg/m3 14.89 µg/m3 13.07 °C 83.09 % 1,015.04 mbar 1.44 m/s 333.63 Deg 36.34 µg/m3
2021-12-21 07:00 62.47 µg/m3 1.65 µg/m3 13.01 µg/m3 21.47 µg/m3 12.36 µg/m3 12.67 °C 82.51 % 1,014.61 mbar 1.52 m/s 334.82 Deg 17.39 µg/m3

It is to be noted that the data is provisional and subject to quality assurance procedures. For validated data kindly refer your request to contact.air@era.org.mt